KB0UOA Weather Reports


Display with metric or nautical units.
time (UTC)temp
F
wind
direction
speed
MPH
gust
MPH
rain 1hr
in
rain 24hr
in
rain mn
in
humidity
%
barometer
mb
20260831021304 92 137 2.0 7.0 0.00 0.00 0.00 38 1014.0
20260831021204 92 136 2.0 6.0 0.00 0.00 0.00 38 1013.9
20260831021104 92 137 2.0 6.0 0.00 0.00 0.00 38 1013.9
20260831021004 92 136 2.0 6.0 0.00 0.00 0.00 38 1013.9
20260831020904 92 142 2.0 8.0 0.00 0.00 0.00 38 1013.9
20260831020804 92 141 2.0 8.0 0.00 0.00 0.00 38 1013.8
20260831020704 92 143 2.0 8.0 0.00 0.00 0.00 38 1013.8
20260831020604 92 145 2.0 8.0 0.00 0.00 0.00 38 1013.8
20260831020504 93 144 2.0 8.0 0.00 0.00 0.00 38 1013.7
20260831020304 93 146 3.0 8.0 0.00 0.00 0.00 38 1013.7
20260831020204 93 145 2.0 8.0 0.00 0.00 0.00 38 1013.7
20260831020104 93 144 3.0 8.0 0.00 0.00 0.00 38 1013.7
20260831020004 93 146 2.0 8.0 0.00 0.00 0.00 38 1013.7
20260831015704 93 140 2.0 8.0 0.00 0.00 0.00 38 1013.7
20260831015604 93 140 2.0 8.0 0.00 0.00 0.00 38 1013.7
20260831015504 93 139 2.0 8.0 0.00 0.00 0.00 38 1013.6
20260831015306 93 141 3.0 7.0 0.00 0.00 0.00 38 1013.6
20260831015204 93 139 3.0 9.0 0.00 0.00 0.00 38 1013.5
20260831015104 93 141 2.0 9.0 0.00 0.00 0.00 39 1013.6
20260831015005 93 141 2.0 9.0 0.00 0.00 0.00 39 1013.5
20260831014905 93 141 2.0 9.0 0.00 0.00 0.00 39 1013.5
20260831014705 93 141 2.0 9.0 0.00 0.00 0.00 38 1013.4
20260831014605 93 142 3.0 9.0 0.00 0.00 0.00 38 1013.4
20260831014405 93 141 3.0 9.0 0.00 0.00 0.00 38 1013.4
20260831014305 93 140 2.0 9.0 0.00 0.00 0.00 39 1013.5
20260831014205 94 141 2.0 7.0 0.00 0.00 0.00 39 1013.4
20260831014105 94 140 2.0 7.0 0.00 0.00 0.00 38 1013.4
20260831014004 94 139 2.0 7.0 0.00 0.00 0.00 38 1013.5
20260831013805 94 140 2.0 7.0 0.00 0.00 0.00 38 1013.4
20260831013604 94 140 2.0 5.0 0.00 0.00 0.00 38 1013.4
20260831013505 94 140 2.0 5.0 0.00 0.00 0.00 38 1013.4
20260831013404 94 140 2.0 6.0 0.00 0.00 0.00 38 1013.4
20260831013304 94 139 2.0 6.0 0.00 0.00 0.00 38 1013.4
20260831013204 94 138 2.0 6.0 0.00 0.00 0.00 38 1013.4
20260831013004 94 140 2.0 7.0 0.00 0.00 0.00 38 1013.4
20260831012904 94 139 2.0 7.0 0.00 0.00 0.00 38 1013.4
20260831012804 94 135 2.0 7.0 0.00 0.00 0.00 38 1013.3
20260831012704 94 137 2.0 7.0 0.00 0.00 0.00 38 1013.3
20260831012604 94 137 2.0 7.0 0.00 0.00 0.00 38 1013.3
20260831012504 94 139 2.0 7.0 0.00 0.00 0.00 38 1013.3
20260831012404 94 138 2.0 7.0 0.00 0.00 0.00 38 1013.3
20260831012306 95 139 3.0 7.0 0.00 0.00 0.00 38 1013.3
20260831012104 95 141 3.0 7.0 0.00 0.00 0.00 38 1013.4
20260831012004 95 139 3.0 7.0 0.00 0.00 0.00 38 1013.3
20260831011904 95 139 3.0 7.0 0.00 0.00 0.00 37 1013.2
20260831011804 95 140 3.0 7.0 0.00 0.00 0.00 37 1013.2
20260831011704 95 138 3.0 7.0 0.00 0.00 0.00 37 1013.2
20260831011504 95 139 3.0 7.0 0.00 0.00 0.00 37 1013.1
20260831011404 95 139 3.0 7.0 0.00 0.00 0.00 37 1013.1
20260831011304 95 136 3.0 7.0 0.00 0.00 0.00 37 1013.1
20260831011204 95 137 3.0 7.0 0.00 0.00 0.00 37 1013.1
20260831011104 95 135 3.0 7.0 0.00 0.00 0.00 37 1013.1
20260831011004 96 136 3.0 8.0 0.00 0.00 0.00 37 1013.2
20260831010904 96 134 3.0 8.0 0.00 0.00 0.00 37 1013.2
20260831010804 96 133 3.0 8.0 0.00 0.00 0.00 37 1013.2
20260831010704 96 133 3.0 8.0 0.00 0.00 0.00 37 1013.1
20260831010605 96 133 4.0 8.0 0.00 0.00 0.00 37 1013.1
20260831010505 96 132 4.0 8.0 0.00 0.00 0.00 37 1013.1
20260831010405 96 131 3.0 8.0 0.00 0.00 0.00 37 1013.1
20260831010305 96 133 4.0 8.0 0.00 0.00 0.00 37 1013.1
20260831010005 96 139 3.0 12.0 0.00 0.00 0.00 37 1013.1
20260831005905 96 139 3.0 12.0 0.00 0.00 0.00 37 1013.1
20260831005804 96 140 3.0 12.0 0.00 0.00 0.00 37 1013.1
20260831005704 96 140 3.0 12.0 0.00 0.00 0.00 37 1013.1
20260831005504 96 138 3.0 12.0 0.00 0.00 0.00 37 1013.1
20260831005405 96 143 3.0 12.0 0.00 0.00 0.00 37 1013.1
20260831005306 97 143 3.0 12.0 0.00 0.00 0.00 37 1013.1
20260831005205 97 140 3.0 7.0 0.00 0.00 0.00 37 1013.0
20260831005105 97 140 3.0 7.0 0.00 0.00 0.00 37 1013.0
20260831005004 97 142 3.0 11.0 0.00 0.00 0.00 37 1013.1
20260831004904 97 147 4.0 15.0 0.00 0.00 0.00 36 1013.0
20260831004804 97 151 4.0 15.0 0.00 0.00 0.00 37 1013.0
20260831004704 97 154 4.0 15.0 0.00 0.00 0.00 36 1013.0
20260831004604 97 156 4.0 15.0 0.00 0.00 0.00 36 1013.0
20260831004505 97 157 4.0 15.0 0.00 0.00 0.00 36 1013.0
20260831004405 97 157 4.0 15.0 0.00 0.00 0.00 36 1013.0
20260831004305 97 156 5.0 15.0 0.00 0.00 0.00 36 1013.1
20260831004204 97 156 5.0 15.0 0.00 0.00 0.00 36 1013.0
20260831004104 97 157 4.0 15.0 0.00 0.00 0.00 36 1013.1
20260831004004 97 157 4.0 15.0 0.00 0.00 0.00 36 1013.1
20260831003904 97 154 4.0 14.0 0.00 0.00 0.00 36 1013.0
20260831003804 98 156 4.0 14.0 0.00 0.00 0.00 36 1013.0
20260831003704 98 152 4.0 14.0 0.00 0.00 0.00 36 1013.0
20260831003604 98 150 4.0 14.0 0.00 0.00 0.00 36 1013.1
20260831003504 98 155 4.0 14.0 0.00 0.00 0.00 36 1013.0
20260831003404 98 152 4.0 14.0 0.00 0.00 0.00 36 1013.0
20260831003304 98 153 4.0 11.0 0.00 0.00 0.00 36 1013.0
20260831003204 98 153 4.0 11.0 0.00 0.00 0.00 36 1013.0
20260831003104 98 150 4.0 11.0 0.00 0.00 0.00 36 1013.1
20260831003004 98 150 4.0 11.0 0.00 0.00 0.00 36 1013.0
20260831002904 98 152 4.0 11.0 0.00 0.00 0.00 36 1013.0
20260831002804 98 150 4.0 11.0 0.00 0.00 0.00 36 1013.0
20260831002704 98 152 4.0 11.0 0.00 0.00 0.00 36 1013.0
20260831002604 98 154 4.0 11.0 0.00 0.00 0.00 35 1013.0
20260831002306 98 153 4.0 11.0 0.00 0.00 0.00 35 1013.0
20260831002204 99 154 4.0 11.0 0.00 0.00 0.00 35 1013.0
20260831002004 99 156 5.0 11.0 0.00 0.00 0.00 35 1013.0
20260831001904 99 159 5.0 11.0 0.00 0.00 0.00 35 1013.0
20260831001804 99 156 5.0 11.0 0.00 0.00 0.00 35 1013.0
20260831001704 99 156 5.0 11.0 0.00 0.00 0.00 35 1013.0
20260831001604 99 158 5.0 11.0 0.00 0.00 0.00 35 1013.0
20260831001504 99 167 5.0 13.0 0.00 0.00 0.00 35 1013.0
20260831001404 99 168 5.0 13.0 0.00 0.00 0.00 35 1013.0
20260831001304 99 166 5.0 13.0 0.00 0.00 0.00 35 1013.0
20260831001204 99 165 5.0 13.0 0.00 0.00 0.00 34 1013.0
20260831001104 100 164 5.0 13.0 0.00 0.00 0.00 34 1013.0
20260831000805 100 160 5.0 13.0 0.00 0.00 0.00 34 1013.1
20260831000704 100 163 5.0 16.0 0.00 0.00 0.00 34 1013.0
20260831000604 100 164 4.0 18.0 0.00 0.00 0.00 34 1013.0
20260831000504 100 157 4.0 18.0 0.00 0.00 0.00 34 1013.1
20260831000404 100 160 4.0 18.0 0.00 0.00 0.00 34 1013.0
20260831000304 100 162 4.0 18.0 0.00 0.00 0.00 34 1013.0
20260831000204 100 164 4.0 18.0 0.00 0.00 0.00 34 1013.0
20260831000104 100 164 4.0 18.0 0.00 0.00 0.00 33 1013.0
20260831000004 101 165 4.0 18.0 0.00 0.00 0.00 33 1013.0
20260830235704 101 166 4.0 18.0 0.00 0.00 0.00 32 1013.0
20260830235604 101 161 4.0 18.0 0.00 0.00 0.00 32 1013.0
20260830235504 101 158 4.0 14.0 0.00 0.00 0.00 32 1013.0
20260830235404 101 153 4.0 14.0 0.00 0.00 0.00 32 1013.0
20260830235306 101 151 4.0 14.0 0.00 0.00 0.00 32 1013.0
20260830235204 101 148 5.0 14.0 0.00 0.00 0.00 32 1013.0
20260830235104 101 153 5.0 16.0 0.00 0.00 0.00 32 1013.0
20260830234904 101 155 5.0 16.0 0.00 0.00 0.00 32 1012.9
20260830234804 101 156 5.0 16.0 0.00 0.00 0.00 31 1012.9
20260830234604 101 161 5.0 17.0 0.00 0.00 0.00 31 1012.9
20260830234504 101 163 6.0 17.0 0.00 0.00 0.00 32 1012.9
20260830234304 101 166 6.0 17.0 0.00 0.00 0.00 31 1012.9
20260830234204 101 167 6.0 17.0 0.00 0.00 0.00 31 1012.9
20260830234104 102 166 6.0 17.0 0.00 0.00 0.00 31 1012.9
20260830234005 101 163 6.0 17.0 0.00 0.00 0.00 31 1012.9
20260830233905 101 162 6.0 17.0 0.00 0.00 0.00 31 1012.8
20260830233705 102 161 5.0 17.0 0.00 0.00 0.00 31 1012.9
20260830233605 102 159 5.0 17.0 0.00 0.00 0.00 31 1012.8
20260830233404 102 156 5.0 17.0 0.00 0.00 0.00 31 1012.8
20260830233305 102 156 5.0 17.0 0.00 0.00 0.00 31 1012.8
20260830232705 102 159 5.0 11.0 0.00 0.00 0.00 31 1012.8
20260830232604 102 157 5.0 11.0 0.00 0.00 0.00 31 1012.7
20260830232405 102 159 5.0 11.0 0.00 0.00 0.00 31 1012.8
20260830232306 102 160 5.0 11.0 0.00 0.00 0.00 31 1012.8
20260830232204 102 158 5.0 11.0 0.00 0.00 0.00 31 1012.7
20260830232105 102 159 5.0 11.0 0.00 0.00 0.00 31 1012.7
20260830232005 102 160 5.0 11.0 0.00 0.00 0.00 31 1012.7
20260830231904 102 161 5.0 12.0 0.00 0.00 0.00 31 1012.7
20260830231704 102 167 5.0 14.0 0.00 0.00 0.00 31 1012.7
20260830231604 102 167 5.0 14.0 0.00 0.00 0.00 31 1012.7
20260830231504 102 165 5.0 14.0 0.00 0.00 0.00 31 1012.7
20260830231404 102 167 5.0 14.0 0.00 0.00 0.00 31 1012.6
20260830231304 102 165 6.0 14.0 0.00 0.00 0.00 31 1012.6
20260830231204 102 169 6.0 14.0 0.00 0.00 0.00 31 1012.6
20260830231104 102 170 6.0 14.0 0.00 0.00 0.00 31 1012.6
20260830231004 102 170 6.0 14.0 0.00 0.00 0.00 31 1012.6
20260830230904 102 170 6.0 14.0 0.00 0.00 0.00 31 1012.6
20260830230804 102 169 6.0 14.0 0.00 0.00 0.00 31 1012.6
20260830230704 102 167 6.0 14.0 0.00 0.00 0.00 31 1012.6
20260830230504 102 170 6.0 14.0 0.00 0.00 0.00 31 1012.6
20260830230405 103 175 6.0 14.0 0.00 0.00 0.00 31 1012.6
20260830230304 103 178 6.0 14.0 0.00 0.00 0.00 31 1012.6
20260830230204 103 176 6.0 13.0 0.00 0.00 0.00 31 1012.6
20260830230104 103 175 6.0 13.0 0.00 0.00 0.00 31 1012.6
20260830230004 103 175 6.0 13.0 0.00 0.00 0.00 32 1012.5
20260830225904 103 174 6.0 13.0 0.00 0.00 0.00 31 1012.6
20260830225804 103 173 6.0 13.0 0.00 0.00 0.00 31 1012.6
20260830225704 103 173 6.0 13.0 0.00 0.00 0.00 31 1012.6
20260830225604 103 178 6.0 14.0 0.00 0.00 0.00 31 1012.6
20260830225504 103 175 6.0 14.0 0.00 0.00 0.00 31 1012.6
20260830225404 103 171 6.0 14.0 0.00 0.00 0.00 31 1012.6
20260830225204 103 170 6.0 14.0 0.00 0.00 0.00 31 1012.5
20260830225104 103 171 5.0 14.0 0.00 0.00 0.00 31 1012.6
20260830224904 103 167 5.0 14.0 0.00 0.00 0.00 31 1012.5
20260830224804 103 167 6.0 14.0 0.00 0.00 0.00 31 1012.5
20260830224704 103 167 5.0 14.0 0.00 0.00 0.00 31 1012.5
20260830224604 103 160 6.0 11.0 0.00 0.00 0.00 31 1012.5
20260830224504 103 164 5.0 12.0 0.00 0.00 0.00 31 1012.5
20260830224304 103 166 5.0 12.0 0.00 0.00 0.00 31 1012.5
20260830224204 103 169 5.0 12.0 0.00 0.00 0.00 31 1012.4
20260830224104 103 170 5.0 12.0 0.00 0.00 0.00 31 1012.4
20260830224004 103 172 5.0 12.0 0.00 0.00 0.00 31 1012.4
20260830223904 103 176 5.0 12.0 0.00 0.00 0.00 31 1012.3
20260830223804 103 179 5.0 12.0 0.00 0.00 0.00 31 1012.4
20260830223604 103 185 5.0 12.0 0.00 0.00 0.00 31 1012.4
20260830223504 103 181 5.0 11.0 0.00 0.00 0.00 31 1012.5
20260830223404 103 177 5.0 11.0 0.00 0.00 0.00 31 1012.4
20260830223304 103 173 5.0 11.0 0.00 0.00 0.00 31 1012.4
20260830223205 103 171 5.0 11.0 0.00 0.00 0.00 31 1012.4
20260830223105 103 169 6.0 11.0 0.00 0.00 0.00 31 1012.4
20260830223005 103 170 6.0 16.0 0.00 0.00 0.00 30 1012.4
20260830222904 103 172 6.0 18.0 0.00 0.00 0.00 31 1012.4
20260830222804 103 172 6.0 18.0 0.00 0.00 0.00 31 1012.4
20260830222705 103 170 6.0 18.0 0.00 0.00 0.00 31 1012.3
20260830222604 103 170 6.0 18.0 0.00 0.00 0.00 30 1012.4
20260830222504 103 171 6.0 18.0 0.00 0.00 0.00 31 1012.3
20260830222306 103 175 6.0 18.0 0.00 0.00 0.00 31 1012.4
20260830222204 103 179 7.0 18.0 0.00 0.00 0.00 31 1012.4
20260830222104 103 184 7.0 18.0 0.00 0.00 0.00 31 1012.4
20260830221904 103 189 6.0 15.0 0.00 0.00 0.00 31 1012.4
20260830221804 103 190 6.0 15.0 0.00 0.00 0.00 31 1012.4
20260830221704 103 191 7.0 15.0 0.00 0.00 0.00 31 1012.4
20260830221604 103 193 7.0 15.0 0.00 0.00 0.00 31 1012.4
20260830221504 103 195 7.0 15.0 0.00 0.00 0.00 31 1012.4
20260830221404 103 197 7.0 15.0 0.00 0.00 0.00 31 1012.6
20260830221204 103 190 6.0 15.0 0.00 0.00 0.00 31 1012.5
20260830221104 104 187 6.0 15.0 0.00 0.00 0.00 30 1012.5
20260830221004 104 182 6.0 15.0 0.00 0.00 0.00 31 1012.4
20260830220905 104 176 6.0 15.0 0.00 0.00 0.00 31 1012.4
20260830220804 104 172 6.0 15.0 0.00 0.00 0.00 31 1012.4
20260830220705 104 170 6.0 15.0 0.00 0.00 0.00 30 1012.4
20260830220305 104 167 7.0 17.0 0.00 0.00 0.00 30 1012.4
20260830220205 104 171 7.0 17.0 0.00 0.00 0.00 30 1012.5
20260830220105 104 177 7.0 19.0 0.00 0.00 0.00 30 1012.4
20260830220005 103 178 7.0 19.0 0.00 0.00 0.00 30 1012.4
20260830215905 103 182 7.0 19.0 0.00 0.00 0.00 30 1012.4
20260830215804 103 182 7.0 19.0 0.00 0.00 0.00 30 1012.4
20260830215704 103 183 7.0 19.0 0.00 0.00 0.00 30 1012.4
20260830215604 104 185 7.0 19.0 0.00 0.00 0.00 30 1012.5
20260830215404 104 187 6.0 19.0 0.00 0.00 0.00 30 1012.5
20260830215305 104 189 6.0 19.0 0.00 0.00 0.00 30 1012.6
20260830215105 104 191 6.0 22.0 0.00 0.00 0.00 31 1012.4
20260830215004 104 190 6.0 22.0 0.00 0.00 0.00 31 1012.5
20260830214904 104 187 7.0 22.0 0.00 0.00 0.00 31 1012.5
20260830214704 104 188 6.0 22.0 0.00 0.00 0.00 30 1012.6
20260830214605 104 186 6.0 22.0 0.00 0.00 0.00 30 1012.6
20260830214404 104 183 6.0 22.0 0.00 0.00 0.00 30 1012.6
20260830214305 104 184 5.0 22.0 0.00 0.00 0.00 30 1012.6
20260830214204 104 179 5.0 15.0 0.00 0.00 0.00 30 1012.6
20260830214104 104 176 5.0 15.0 0.00 0.00 0.00 30 1012.6
20260830214004 104 177 5.0 14.0 0.00 0.00 0.00 30 1012.6
20260830213904 104 183 5.0 14.0 0.00 0.00 0.00 30 1012.6
20260830213604 104 195 6.0 15.0 0.00 0.00 0.00 30 1012.6
20260830213504 104 193 6.0 15.0 0.00 0.00 0.00 30 1012.7
20260830213405 104 194 6.0 15.0 0.00 0.00 0.00 30 1012.6
20260830213304 104 192 7.0 15.0 0.00 0.00 0.00 31 1012.6
20260830213204 104 190 7.0 15.0 0.00 0.00 0.00 30 1012.6
20260830213004 104 188 7.0 15.0 0.00 0.00 0.00 30 1012.6
20260830212904 104 186 6.0 15.0 0.00 0.00 0.00 30 1012.7
20260830212804 104 178 6.0 15.0 0.00 0.00 0.00 30 1012.6
20260830212704 104 177 6.0 15.0 0.00 0.00 0.00 30 1012.6
20260830212604 104 178 7.0 16.0 0.00 0.00 0.00 30 1012.7
20260830212504 104 186 7.0 16.0 0.00 0.00 0.00 30 1012.7
20260830212404 104 188 7.0 16.0 0.00 0.00 0.00 30 1012.6
20260830212306 104 191 6.0 16.0 0.00 0.00 0.00 30 1012.7
20260830212204 104 195 6.0 16.0 0.00 0.00 0.00 30 1012.7
20260830212004 104 201 6.0 16.0 0.00 0.00 0.00 31 1012.7
20260830211904 104 202 6.0 16.0 0.00 0.00 0.00 31 1012.6
20260830211604 104 208 6.0 16.0 0.00 0.00 0.00 30 1012.7
20260830211504 104 203 5.0 16.0 0.00 0.00 0.00 30 1012.7
20260830211304 104 197 5.0 16.0 0.00 0.00 0.00 30 1012.6
20260830211204 104 196 5.0 16.0 0.00 0.00 0.00 30 1012.7
20260830211104 104 193 6.0 16.0 0.00 0.00 0.00 30 1012.8
20260830211004 104 191 6.0 16.0 0.00 0.00 0.00 30 1012.8
20260830210904 104 185 6.0 16.0 0.00 0.00 0.00 29 1012.7
20260830210804 104 182 6.0 16.0 0.00 0.00 0.00 29 1012.8
20260830210504 104 163 7.0 14.0 0.00 0.00 0.00 30 1012.8
20260830210404 104 166 7.0 18.0 0.00 0.00 0.00 30 1012.9
20260830210304 104 170 7.0 18.0 0.00 0.00 0.00 30 1012.8
20260830210205 104 167 7.0 18.0 0.00 0.00 0.00 30 1012.8
20260830210105 104 171 8.0 18.0 0.00 0.00 0.00 30 1012.8
20260830210005 104 175 8.0 18.0 0.00 0.00 0.00 30 1012.8
20260830205905 104 181 7.0 18.0 0.00 0.00 0.00 30 1012.7
20260830205805 104 179 7.0 18.0 0.00 0.00 0.00 30 1012.9
20260830205605 104 188 7.0 18.0 0.00 0.00 0.00 30 1012.9
20260830205505 103 195 7.0 18.0 0.00 0.00 0.00 30 1012.8
20260830205405 104 195 7.0 17.0 0.00 0.00 0.00 30 1012.9
20260830205205 104 190 7.0 17.0 0.00 0.00 0.00 30 1012.9
20260830205105 104 188 7.0 16.0 0.00 0.00 0.00 30 1012.9
20260830205005 104 184 7.0 19.0 0.00 0.00 0.00 30 1012.9
20260830204905 104 181 7.0 19.0 0.00 0.00 0.00 30 1012.9
20260830204805 104 181 7.0 19.0 0.00 0.00 0.00 30 1013.0
20260830204705 104 181 7.0 19.0 0.00 0.00 0.00 30 1013.0
20260830204605 104 178 7.0 19.0 0.00 0.00 0.00 30 1013.0
20260830204505 104 178 7.0 19.0 0.00 0.00 0.00 30 1013.0
20260830204405 104 176 6.0 19.0 0.00 0.00 0.00 30 1012.9
20260830204305 104 172 6.0 19.0 0.00 0.00 0.00 30 1012.9
20260830204005 104 174 5.0 14.0 0.00 0.00 0.00 31 1012.9
20260830203905 104 176 5.0 14.0 0.00 0.00 0.00 30 1012.9
20260830203805 104 175 5.0 14.0 0.00 0.00 0.00 31 1013.0
20260830203705 104 172 5.0 14.0 0.00 0.00 0.00 30 1012.9
20260830203605 104 173 6.0 14.0 0.00 0.00 0.00 30 1013.0
20260830203305 104 175 7.0 18.0 0.00 0.00 0.00 30 1013.1
20260830203205 104 175 7.0 18.0 0.00 0.00 0.00 30 1013.1
20260830203005 103 177 7.0 18.0 0.00 0.00 0.00 29 1013.1
20260830202905 103 173 7.0 18.0 0.00 0.00 0.00 30 1013.1
20260830202705 103 173 7.0 20.0 0.00 0.00 0.00 29 1013.1
20260830202505 104 173 6.0 20.0 0.00 0.00 0.00 29 1013.2
20260830202405 104 173 6.0 20.0 0.00 0.00 0.00 29 1013.2
20260830202306 104 170 6.0 20.0 0.00 0.00 0.00 29 1013.2
20260830202205 104 170 6.0 20.0 0.00 0.00 0.00 30 1013.1
20260830202105 104 171 6.0 20.0 0.00 0.00 0.00 30 1013.0
20260830202005 104 172 6.0 20.0 0.00 0.00 0.00 31 1013.1
20260830201705 104 184 6.0 16.0 0.00 0.00 0.00 31 1013.2
20260830201605 103 187 7.0 18.0 0.00 0.00 0.00 31 1013.2
20260830201505 103 190 7.0 18.0 0.00 0.00 0.00 31 1013.2
20260830201405 103 191 7.0 18.0 0.00 0.00 0.00 31 1013.2
20260830201205 103 198 7.0 18.0 0.00 0.00 0.00 31 1013.2
20260830201105 103 196 7.0 18.0 0.00 0.00 0.00 30 1013.3
20260830200905 103 197 7.0 18.0 0.00 0.00 0.00 31 1013.3
20260830200805 103 198 7.0 18.0 0.00 0.00 0.00 31 1013.4
20260830200705 103 198 7.0 18.0 0.00 0.00 0.00 31 1013.3
20260830200605 103 195 7.0 15.0 0.00 0.00 0.00 31 1013.4
20260830200505 103 193 7.0 17.0 0.00 0.00 0.00 31 1013.4
20260830200305 103 193 7.0 19.0 0.00 0.00 0.00 31 1013.4
20260830200205 102 193 7.0 19.0 0.00 0.00 0.00 31 1013.4
20260830200105 103 191 8.0 19.0 0.00 0.00 0.00 32 1013.4
20260830200005 102 188 7.0 19.0 0.00 0.00 0.00 32 1013.4
20260830195905 103 183 7.0 19.0 0.00 0.00 0.00 32 1013.4
20260830195705 103 172 7.0 19.0 0.00 0.00 0.00 32 1013.5
20260830195605 103 171 7.0 19.0 0.00 0.00 0.00 32 1013.5
20260830195505 103 166 7.0 19.0 0.00 0.00 0.00 31 1013.5
20260830195405 103 161 7.0 18.0 0.00 0.00 0.00 31 1013.5
20260830195305 103 157 7.0 17.0 0.00 0.00 0.00 31 1013.4
20260830195205 103 152 6.0 13.0 0.00 0.00 0.00 32 1013.4
20260830194905 103 157 7.0 16.0 0.00 0.00 0.00 32 1013.4
20260830194805 103 159 7.0 16.0 0.00 0.00 0.00 32 1013.4
20260830194705 103 160 6.0 16.0 0.00 0.00 0.00 32 1013.4
20260830194605 103 157 6.0 16.0 0.00 0.00 0.00 32 1013.4
20260830194505 103 157 6.0 16.0 0.00 0.00 0.00 32 1013.5
20260830194405 103 154 6.0 16.0 0.00 0.00 0.00 32 1013.4
20260830194305 103 156 6.0 16.0 0.00 0.00 0.00 32 1013.4
20260830194205 103 152 6.0 16.0 0.00 0.00 0.00 32 1013.4
20260830194105 103 157 7.0 16.0 0.00 0.00 0.00 32 1013.5
20260830194004 103 159 7.0 16.0 0.00 0.00 0.00 33 1013.5
20260830193804 102 163 7.0 16.0 0.00 0.00 0.00 33 1013.4
20260830193705 102 171 7.0 16.0 0.00 0.00 0.00 33 1013.4
20260830193605 102 175 7.0 16.0 0.00 0.00 0.00 32 1013.5
20260830193404 102 176 7.0 16.0 0.00 0.00 0.00 32 1013.7
20260830193305 102 174 7.0 16.0 0.00 0.00 0.00 32 1013.5
20260830193204 102 177 7.0 16.0 0.00 0.00 0.00 32 1013.7
20260830193104 102 174 7.0 15.0 0.00 0.00 0.00 33 1013.6
20260830193004 102 177 7.0 18.0 0.00 0.00 0.00 33 1013.6
20260830192904 102 175 7.0 18.0 0.00 0.00 0.00 33 1013.6
20260830192804 102 175 6.0 18.0 0.00 0.00 0.00 32 1013.6
20260830192704 102 173 6.0 18.0 0.00 0.00 0.00 32 1013.7
20260830192605 102 171 6.0 18.0 0.00 0.00 0.00 32 1013.6
20260830192504 102 178 7.0 20.0 0.00 0.00 0.00 32 1013.6
20260830192404 102 181 7.0 20.0 0.00 0.00 0.00 32 1013.7
20260830192305 102 182 7.0 20.0 0.00 0.00 0.00 32 1013.7
20260830192205 102 179 7.0 20.0 0.00 0.00 0.00 32 1013.7
20260830192105 102 181 7.0 20.0 0.00 0.00 0.00 33 1013.7
20260830192005 102 176 7.0 20.0 0.00 0.00 0.00 34 1013.7
20260830191905 102 178 7.0 20.0 0.00 0.00 0.00 33 1013.6
20260830191805 102 179 7.0 20.0 0.00 0.00 0.00 34 1013.7
20260830191705 102 177 7.0 20.0 0.00 0.00 0.00 34 1013.7
20260830191605 102 181 7.0 20.0 0.00 0.00 0.00 33 1013.6
20260830191505 102 174 7.0 15.0 0.00 0.00 0.00 33 1013.6
20260830191405 102 176 7.0 15.0 0.00 0.00 0.00 33 1013.7
20260830191305 102 182 7.0 15.0 0.00 0.00 0.00 34 1013.7
20260830191205 101 185 7.0 18.0 0.00 0.00 0.00 34 1013.7
20260830191105 101 183 8.0 18.0 0.00 0.00 0.00 34 1013.7
20260830191004 101 184 8.0 18.0 0.00 0.00 0.00 34 1013.7
20260830190904 101 183 8.0 18.0 0.00 0.00 0.00 34 1013.7
20260830190805 101 181 8.0 18.0 0.00 0.00 0.00 34 1013.7
20260830190705 101 184 8.0 18.0 0.00 0.00 0.00 34 1013.7
20260830190604 101 181 8.0 18.0 0.00 0.00 0.00 35 1013.8
20260830190405 101 184 8.0 18.0 0.00 0.00 0.00 35 1013.8
20260830190305 101 179 8.0 18.0 0.00 0.00 0.00 34 1013.7
20260830190105 101 181 8.0 18.0 0.00 0.00 0.00 35 1013.9
20260830190005 100 186 8.0 18.0 0.00 0.00 0.00 36 1013.8
20260830185905 100 184 8.0 18.0 0.00 0.00 0.00 35 1013.8
20260830185805 100 182 8.0 18.0 0.00 0.00 0.00 35 1013.7
20260830185705 100 179 8.0 18.0 0.00 0.00 0.00 35 1013.8
20260830185605 100 179 8.0 18.0 0.00 0.00 0.00 35 1013.9
20260830185504 100 177 7.0 18.0 0.00 0.00 0.00 35 1013.9
20260830185405 100 174 7.0 18.0 0.00 0.00 0.00 35 1013.9
20260830185306 101 174 7.0 18.0 0.00 0.00 0.00 34 1013.9
20260830185205 101 173 7.0 16.0 0.00 0.00 0.00 34 1014.0
20260830185004 101 166 6.0 15.0 0.00 0.00 0.00 35 1014.1
20260830184904 101 173 7.0 21.0 0.00 0.00 0.00 35 1014.0
20260830184804 100 177 7.0 21.0 0.00 0.00 0.00 35 1014.0
20260830184704 100 178 7.0 21.0 0.00 0.00 0.00 36 1014.0
20260830184604 100 179 7.0 21.0 0.00 0.00 0.00 35 1014.0
20260830184504 100 179 7.0 21.0 0.00 0.00 0.00 35 1014.0
20260830184404 100 178 7.0 21.0 0.00 0.00 0.00 36 1014.1
20260830184304 100 178 7.0 21.0 0.00 0.00 0.00 36 1014.1
20260830183904 100 173 7.0 17.0 0.00 0.00 0.00 35 1014.2
20260830183804 100 169 8.0 15.0 0.00 0.00 0.00 36 1014.1
20260830183604 100 172 8.0 18.0 0.00 0.00 0.00 36 1014.1
20260830183504 100 172 8.0 18.0 0.00 0.00 0.00 36 1014.1
20260830183404 100 174 7.0 18.0 0.00 0.00 0.00 36 1014.1
20260830183305 100 174 7.0 18.0 0.00 0.00 0.00 37 1014.1
20260830183105 100 176 7.0 18.0 0.00 0.00 0.00 36 1014.2
20260830183004 100 179 7.0 18.0 0.00 0.00 0.00 36 1014.1
20260830182904 100 187 7.0 18.0 0.00 0.00 0.00 36 1014.2
20260830182804 100 195 7.0 25.0 0.00 0.00 0.00 36 1014.2
20260830182704 100 197 7.0 25.0 0.00 0.00 0.00 36 1014.3
20260830182604 100 195 7.0 25.0 0.00 0.00 0.00 36 1014.2
20260830182504 100 194 7.0 25.0 0.00 0.00 0.00 38 1014.3
20260830182404 99 191 7.0 25.0 0.00 0.00 0.00 38 1014.3
20260830182306 99 192 7.0 25.0 0.00 0.00 0.00 38 1014.3
20260830182204 99 192 7.0 25.0 0.00 0.00 0.00 37 1014.2
20260830182004 99 188 7.0 25.0 0.00 0.00 0.00 37 1014.2
20260830181904 99 186 7.0 25.0 0.00 0.00 0.00 37 1014.3
20260830181804 99 179 7.0 15.0 0.00 0.00 0.00 37 1014.3
20260830181704 99 173 7.0 15.0 0.00 0.00 0.00 37 1014.3
20260830181604 99 175 7.0 15.0 0.00 0.00 0.00 38 1014.4
20260830181504 99 178 7.0 15.0 0.00 0.00 0.00 38 1014.3
20260830181304 99 178 8.0 15.0 0.00 0.00 0.00 38 1014.3
20260830181205 99 177 8.0 15.0 0.00 0.00 0.00 37 1014.3
20260830181105 99 177 8.0 18.0 0.00 0.00 0.00 37 1014.3
20260830181005 98 178 8.0 18.0 0.00 0.00 0.00 38 1014.4
20260830180905 98 175 8.0 18.0 0.00 0.00 0.00 38 1014.4
20260830180805 98 175 8.0 18.0 0.00 0.00 0.00 38 1014.3
20260830180705 98 175 8.0 18.0 0.00 0.00 0.00 38 1014.4
20260830180605 98 175 8.0 18.0 0.00 0.00 0.00 38 1014.5
20260830180405 98 176 9.0 18.0 0.00 0.00 0.00 38 1014.4
20260830180305 98 178 9.0 18.0 0.00 0.00 0.00 38 1014.5
20260830180205 98 179 9.0 18.0 0.00 0.00 0.00 38 1014.5
20260830180105 98 181 8.0 18.0 0.00 0.00 0.00 38 1014.6
20260830175805 98 183 8.0 18.0 0.00 0.00 0.00 39 1014.4
20260830175605 98 188 8.0 18.0 0.00 0.00 0.00 39 1014.5
20260830175505 98 189 8.0 18.0 0.00 0.00 0.00 38 1014.4
20260830175404 98 191 8.0 18.0 0.00 0.00 0.00 39 1014.4
20260830175306 98 191 7.0 15.0 0.00 0.00 0.00 39 1014.5
20260830175204 98 192 7.0 15.0 0.00 0.00 0.00 39 1014.4
20260830175105 98 191 7.0 18.0 0.00 0.00 0.00 39 1014.5
20260830175005 97 189 8.0 18.0 0.00 0.00 0.00 40 1014.5
20260830174904 97 190 8.0 18.0 0.00 0.00 0.00 40 1014.5
20260830174804 97 186 8.0 18.0 0.00 0.00 0.00 40 1014.5
20260830174604 97 182 8.0 25.0 0.00 0.00 0.00 40 1014.6
20260830174504 97 179 8.0 25.0 0.00 0.00 0.00 40 1014.5
20260830174304 97 176 8.0 25.0 0.00 0.00 0.00 40 1014.6
20260830174204 97 176 8.0 25.0 0.00 0.00 0.00 40 1014.6
20260830174104 97 177 8.0 25.0 0.00 0.00 0.00 40 1014.6
20260830174004 97 177 8.0 25.0 0.00 0.00 0.00 40 1014.6
20260830173904 97 175 8.0 25.0 0.00 0.00 0.00 40 1014.6
20260830173804 97 177 7.0 25.0 0.00 0.00 0.00 40 1014.6
20260830173604 97 179 7.0 19.0 0.00 0.00 0.00 41 1014.7
20260830173504 96 178 7.0 19.0 0.00 0.00 0.00 41 1014.6
20260830173404 96 177 7.0 19.0 0.00 0.00 0.00 40 1014.7
20260830173304 97 175 7.0 19.0 0.00 0.00 0.00 40 1014.7
20260830173205 97 177 7.0 19.0 0.00 0.00 0.00 40 1014.8
20260830173104 97 177 7.0 19.0 0.00 0.00 0.00 40 1014.7
20260830173004 97 182 7.0 19.0 0.00 0.00 0.00 41 1014.8
20260830172904 97 185 7.0 19.0 0.00 0.00 0.00 41 1014.8
20260830172804 97 183 7.0 19.0 0.00 0.00 0.00 40 1014.8
20260830172704 96 181 7.0 15.0 0.00 0.00 0.00 42 1014.8
20260830172604 96 185 8.0 19.0 0.00 0.00 0.00 42 1014.8
20260830172404 96 186 8.0 19.0 0.00 0.00 0.00 41 1014.8
20260830172306 96 189 8.0 19.0 0.00 0.00 0.00 41 1014.8
20260830172204 96 189 8.0 19.0 0.00 0.00 0.00 41 1014.8
20260830172004 96 185 8.0 19.0 0.00 0.00 0.00 41 1014.8
20260830171904 96 183 8.0 19.0 0.00 0.00 0.00 42 1014.9
20260830171804 96 185 8.0 19.0 0.00 0.00 0.00 41 1014.9
20260830171604 96 187 8.0 21.0 0.00 0.00 0.00 42 1014.9
20260830171505 96 189 8.0 21.0 0.00 0.00 0.00 42 1014.9
20260830171305 96 189 9.0 21.0 0.00 0.00 0.00 42 1014.9
20260830171205 95 188 9.0 21.0 0.00 0.00 0.00 42 1014.9
20260830171104 95 190 9.0 21.0 0.00 0.00 0.00 42 1015.0
20260830170904 95 190 9.0 21.0 0.00 0.00 0.00 42 1015.0
20260830170805 95 192 9.0 21.0 0.00 0.00 0.00 42 1015.0
20260830170705 95 192 9.0 20.0 0.00 0.00 0.00 42 1015.0
20260830170605 95 191 9.0 20.0 0.00 0.00 0.00 42 1015.1
20260830170504 95 190 9.0 20.0 0.00 0.00 0.00 42 1015.0
20260830170404 95 190 9.0 20.0 0.00 0.00 0.00 42 1015.1
20260830170304 95 187 8.0 20.0 0.00 0.00 0.00 42 1015.1
20260830170205 95 186 8.0 20.0 0.00 0.00 0.00 42 1015.1
20260830170104 95 186 8.0 20.0 0.00 0.00 0.00 42 1015.1
20260830170005 95 189 8.0 20.0 0.00 0.00 0.00 42 1015.1
20260830165904 95 190 8.0 20.0 0.00 0.00 0.00 42 1015.1
20260830165804 95 187 8.0 20.0 0.00 0.00 0.00 43 1015.1
20260830165704 95 185 8.0 20.0 0.00 0.00 0.00 43 1015.2
20260830165604 95 183 8.0 20.0 0.00 0.00 0.00 42 1015.2
20260830165504 95 182 8.0 20.0 0.00 0.00 0.00 43 1015.2
20260830165306 95 183 8.0 19.0 0.00 0.00 0.00 43 1015.2
20260830165204 95 184 7.0 19.0 0.00 0.00 0.00 43 1015.2
20260830165104 95 183 6.0 19.0 0.00 0.00 0.00 42 1015.2
20260830164904 95 176 7.0 16.0 0.00 0.00 0.00 43 1015.2
20260830164804 95 172 7.0 16.0 0.00 0.00 0.00 42 1015.2
20260830164704 95 175 7.0 20.0 0.00 0.00 0.00 42 1015.1
20260830164604 95 173 7.0 20.0 0.00 0.00 0.00 43 1015.2
20260830164504 94 176 7.0 20.0 0.00 0.00 0.00 43 1015.3
20260830164404 94 175 6.0 20.0 0.00 0.00 0.00 44 1015.3
20260830164304 94 173 6.0 20.0 0.00 0.00 0.00 44 1015.3
20260830164104 94 174 7.0 20.0 0.00 0.00 0.00 44 1015.3
20260830164004 94 179 8.0 20.0 0.00 0.00 0.00 43 1015.3
20260830163904 94 182 8.0 20.0 0.00 0.00 0.00 44 1015.4
20260830163704 94 181 7.0 19.0 0.00 0.00 0.00 44 1015.3
20260830163504 94 176 7.0 19.0 0.00 0.00 0.00 45 1015.4
20260830163404 93 178 7.0 19.0 0.00 0.00 0.00 45 1015.4
20260830163304 93 177 7.0 19.0 0.00 0.00 0.00 45 1015.3
20260830163204 93 179 7.0 19.0 0.00 0.00 0.00 44 1015.4
20260830163104 93 179 7.0 19.0 0.00 0.00 0.00 44 1015.4
20260830163004 93 177 6.0 19.0 0.00 0.00 0.00 44 1015.5
20260830162904 93 173 6.0 15.0 0.00 0.00 0.00 44 1015.4
20260830162804 93 173 6.0 15.0 0.00 0.00 0.00 45 1015.4
20260830162704 93 176 6.0 15.0 0.00 0.00 0.00 45 1015.4
20260830162604 93 178 6.0 15.0 0.00 0.00 0.00 45 1015.5
20260830162504 93 179 6.0 14.0 0.00 0.00 0.00 45 1015.5
20260830162204 93 178 7.0 20.0 0.00 0.00 0.00 45 1015.4
20260830162104 93 177 7.0 20.0 0.00 0.00 0.00 45 1015.5
20260830162004 93 175 7.0 20.0 0.00 0.00 0.00 45 1015.5
20260830161904 92 177 7.0 20.0 0.00 0.00 0.00 45 1015.4
20260830161804 92 178 7.0 20.0 0.00 0.00 0.00 46 1015.4
20260830161704 92 175 7.0 20.0 0.00 0.00 0.00 45 1015.4
20260830161604 92 177 7.0 20.0 0.00 0.00 0.00 45 1015.4
20260830161504 92 178 6.0 20.0 0.00 0.00 0.00 46 1015.4
20260830161404 92 177 6.0 20.0 0.00 0.00 0.00 46 1015.4
20260830161304 92 182 6.0 20.0 0.00 0.00 0.00 46 1015.6
20260830161204 92 178 6.0 14.0 0.00 0.00 0.00 45 1015.5
20260830161104 92 181 6.0 12.0 0.00 0.00 0.00 46 1015.4
20260830160804 91 177 6.0 12.0 0.00 0.00 0.00 47 1015.6
20260830160704 91 182 6.0 12.0 0.00 0.00 0.00 46 1015.4
20260830160504 91 174 6.0 11.0 0.00 0.00 0.00 47 1015.4
20260830160404 91 177 6.0 12.0 0.00 0.00 0.00 46 1015.5
20260830160304 91 175 6.0 12.0 0.00 0.00 0.00 47 1015.5
20260830160204 91 177 6.0 12.0 0.00 0.00 0.00 46 1015.5
20260830160104 91 178 6.0 14.0 0.00 0.00 0.00 47 1015.5
20260830160004 91 179 6.0 14.0 0.00 0.00 0.00 47 1015.4
20260830155904 91 181 6.0 14.0 0.00 0.00 0.00 47 1015.4
20260830155804 90 181 6.0 14.0 0.00 0.00 0.00 47 1015.4
20260830155704 90 177 6.0 14.0 0.00 0.00 0.00 47 1015.4
20260830155504 90 181 6.0 15.0 0.00 0.00 0.00 47 1015.4
20260830155404 90 176 6.0 15.0 0.00 0.00 0.00 47 1015.4
20260830155306 90 176 6.0 15.0 0.00 0.00 0.00 47 1015.4
20260830155204 90 176 6.0 15.0 0.00 0.00 0.00 48 1015.4
20260830155105 90 175 6.0 15.0 0.00 0.00 0.00 48 1015.4
20260830155005 90 175 6.0 15.0 0.00 0.00 0.00 48 1015.4
20260830154905 90 175 7.0 15.0 0.00 0.00 0.00 48 1015.4
20260830154805 89 174 7.0 15.0 0.00 0.00 0.00 48 1015.4
20260830154705 89 175 7.0 15.0 0.00 0.00 0.00 48 1015.4
20260830154605 89 177 6.0 15.0 0.00 0.00 0.00 49 1015.4
20260830154404 89 182 7.0 15.0 0.00 0.00 0.00 49 1015.4
20260830154304 89 185 7.0 15.0 0.00 0.00 0.00 49 1015.4
20260830154104 89 185 7.0 17.0 0.00 0.00 0.00 49 1015.5
20260830154004 89 187 7.0 17.0 0.00 0.00 0.00 49 1015.4
20260830153904 88 187 7.0 17.0 0.00 0.00 0.00 49 1015.4
20260830153804 88 188 7.0 17.0 0.00 0.00 0.00 49 1015.4
20260830153704 88 188 6.0 17.0 0.00 0.00 0.00 50 1015.4
20260830153604 88 187 7.0 17.0 0.00 0.00 0.00 50 1015.4
20260830153404 88 184 6.0 17.0 0.00 0.00 0.00 49 1015.5
20260830153304 88 181 6.0 17.0 0.00 0.00 0.00 49 1015.5
20260830153104 88 173 6.0 15.0 0.00 0.00 0.00 50 1015.4
20260830153005 88 169 6.0 15.0 0.00 0.00 0.00 49 1015.5
20260830152905 88 170 6.0 20.0 0.00 0.00 0.00 50 1015.5
20260830152805 88 171 6.0 20.0 0.00 0.00 0.00 50 1015.5
20260830152605 88 166 6.0 20.0 0.00 0.00 0.00 49 1015.4
20260830152505 88 162 6.0 20.0 0.00 0.00 0.00 50 1015.4
20260830152405 88 162 6.0 20.0 0.00 0.00 0.00 49 1015.4
20260830152306 87 163 6.0 20.0 0.00 0.00 0.00 50 1015.5
20260830152205 87 165 6.0 20.0 0.00 0.00 0.00 50 1015.5
20260830152005 87 172 6.0 20.0 0.00 0.00 0.00 50 1015.5
20260830151904 87 168 5.0 12.0 0.00 0.00 0.00 50 1015.5
20260830151805 87 166 5.0 12.0 0.00 0.00 0.00 51 1015.5
20260830151704 87 172 5.0 13.0 0.00 0.00 0.00 51 1015.6
20260830151604 87 171 5.0 13.0 0.00 0.00 0.00 50 1015.5
20260830151504 87 174 5.0 13.0 0.00 0.00 0.00 51 1015.5
20260830151404 87 174 6.0 15.0 0.00 0.00 0.00 51 1015.6
20260830151304 87 174 6.0 15.0 0.00 0.00 0.00 51 1015.6
20260830151204 87 175 6.0 15.0 0.00 0.00 0.00 51 1015.6
20260830151104 86 177 6.0 15.0 0.00 0.00 0.00 52 1015.5
20260830151005 86 175 6.0 15.0 0.00 0.00 0.00 51 1015.6
20260830150905 86 177 6.0 15.0 0.00 0.00 0.00 51 1015.5
20260830150805 86 176 6.0 15.0 0.00 0.00 0.00 51 1015.5
20260830150504 86 179 6.0 17.0 0.00 0.00 0.00 51 1015.6
20260830150304 86 179 6.0 17.0 0.00 0.00 0.00 51 1015.5
20260830150204 86 178 6.0 17.0 0.00 0.00 0.00 51 1015.7
20260830150104 86 176 6.0 17.0 0.00 0.00 0.00 52 1015.7
20260830150004 86 177 6.0 17.0 0.00 0.00 0.00 51 1015.6
20260830145904 86 181 5.0 17.0 0.00 0.00 0.00 52 1015.7
20260830145804 86 183 5.0 17.0 0.00 0.00 0.00 51 1015.7
20260830145704 86 184 5.0 17.0 0.00 0.00 0.00 51 1015.7
20260830145505 86 182 5.0 11.0 0.00 0.00 0.00 51 1015.7
20260830145404 86 182 5.0 11.0 0.00 0.00 0.00 52 1015.7
20260830145306 86 182 5.0 11.0 0.00 0.00 0.00 52 1015.7
20260830145204 86 181 5.0 11.0 0.00 0.00 0.00 52 1015.8
20260830145104 86 179 5.0 11.0 0.00 0.00 0.00 52 1015.8
20260830145004 86 179 5.0 11.0 0.00 0.00 0.00 51 1015.9
20260830144904 86 175 5.0 11.0 0.00 0.00 0.00 52 1015.9
20260830144804 85 176 5.0 11.0 0.00 0.00 0.00 52 1015.9
20260830144704 85 178 6.0 11.0 0.00 0.00 0.00 52 1015.8
20260830144604 85 182 6.0 13.0 0.00 0.00 0.00 52 1015.9
20260830144504 85 178 6.0 13.0 0.00 0.00 0.00 52 1015.9
20260830144404 85 181 6.0 13.0 0.00 0.00 0.00 53 1015.9
20260830144304 85 182 6.0 13.0 0.00 0.00 0.00 52 1015.8
20260830144204 85 185 6.0 13.0 0.00 0.00 0.00 53 1015.9
20260830144104 85 186 6.0 13.0 0.00 0.00 0.00 52 1015.9
20260830144004 85 185 6.0 13.0 0.00 0.00 0.00 52 1016.0
20260830143904 85 185 6.0 13.0 0.00 0.00 0.00 53 1016.0
20260830143804 85 185 5.0 13.0 0.00 0.00 0.00 52 1016.0
20260830143704 85 185 5.0 13.0 0.00 0.00 0.00 53 1016.0
20260830143604 85 179 5.0 13.0 0.00 0.00 0.00 53 1016.1
20260830143504 84 181 5.0 13.0 0.00 0.00 0.00 53 1016.1
20260830143404 84 178 5.0 13.0 0.00 0.00 0.00 53 1015.9
20260830143204 84 171 5.0 13.0 0.00 0.00 0.00 53 1015.9
20260830143104 84 169 5.0 11.0 0.00 0.00 0.00 54 1015.9
20260830143004 84 169 5.0 11.0 0.00 0.00 0.00 54 1015.9
20260830142904 84 169 5.0 11.0 0.00 0.00 0.00 54 1015.8
20260830142804 84 172 5.0 13.0 0.00 0.00 0.00 54 1015.8
20260830142705 84 173 5.0 13.0 0.00 0.00 0.00 54 1015.9
20260830142604 84 176 5.0 13.0 0.00 0.00 0.00 54 1015.8
20260830142504 84 175 5.0 13.0 0.00 0.00 0.00 54 1015.8
20260830142404 84 171 5.0 13.0 0.00 0.00 0.00 54 1015.9
20260830142204 83 175 5.0 13.0 0.00 0.00 0.00 54 1015.8
20260830142104 83 177 5.0 13.0 0.00 0.00 0.00 55 1015.8
20260830142004 83 178 5.0 13.0 0.00 0.00 0.00 55 1015.9
20260830141904 83 177 4.0 13.0 0.00 0.00 0.00 54 1015.8
20260830141804 83 174 4.0 12.0 0.00 0.00 0.00 54 1015.9
20260830141704 83 171 4.0 12.0 0.00 0.00 0.00 55 1015.9
20260830141504 83 172 4.0 13.0 0.00 0.00 0.00 55 1015.9
20260830141404 83 172 4.0 13.0 0.00 0.00 0.00 55 1016.0
20260830141204 83 169 4.0 13.0 0.00 0.00 0.00 55 1016.0
20260830141104 83 165 4.0 13.0 0.00 0.00 0.00 55 1016.0
20260830141004 82 163 5.0 13.0 0.00 0.00 0.00 55 1016.1
20260830140904 82 164 5.0 13.0 0.00 0.00 0.00 55 1016.1
20260830140804 82 164 4.0 13.0 0.00 0.00 0.00 55 1016.0
20260830140504 82 158 4.0 11.0 0.00 0.00 0.00 55 1016.0
20260830140404 82 162 5.0 13.0 0.00 0.00 0.00 56 1016.1
20260830140304 82 169 5.0 15.0 0.00 0.00 0.00 56 1016.1
20260830140004 82 178 5.0 15.0 0.00 0.00 0.00 56 1016.1
20260830135904 82 176 4.0 15.0 0.00 0.00 0.00 56 1016.1
20260830135804 82 176 5.0 15.0 0.00 0.00 0.00 57 1016.1
20260830135704 81 177 5.0 15.0 0.00 0.00 0.00 57 1016.1
20260830135504 81 178 5.0 21.0 0.00 0.00 0.00 56 1016.2
20260830135404 81 174 5.0 21.0 0.00 0.00 0.00 56 1016.1
20260830135306 81 170 5.0 21.0 0.00 0.00 0.00 57 1016.2
20260830135204 81 166 5.0 21.0 0.00 0.00 0.00 56 1016.0
20260830135104 81 162 5.0 21.0 0.00 0.00 0.00 57 1016.1
20260830134904 81 161 5.0 21.0 0.00 0.00 0.00 57 1016.2
20260830134804 81 161 5.0 21.0 0.00 0.00 0.00 57 1016.2
20260830134704 81 158 5.0 21.0 0.00 0.00 0.00 57 1016.0
20260830134604 81 159 5.0 21.0 0.00 0.00 0.00 57 1016.1
20260830134504 80 159 5.0 16.0 0.00 0.00 0.00 58 1016.2
20260830134404 80 161 5.0 16.0 0.00 0.00 0.00 58 1016.2
20260830134304 80 165 5.0 16.0 0.00 0.00 0.00 58 1016.1
20260830134204 80 169 5.0 16.0 0.00 0.00 0.00 58 1016.1
20260830134104 80 168 5.0 16.0 0.00 0.00 0.00 59 1016.3
20260830134004 80 170 5.0 16.0 0.00 0.00 0.00 58 1016.2
20260830133904 80 171 5.0 16.0 0.00 0.00 0.00 58 1016.2
20260830133804 80 170 5.0 16.0 0.00 0.00 0.00 58 1016.2
20260830133704 80 168 4.0 16.0 0.00 0.00 0.00 58 1016.3
20260830133604 80 168 4.0 16.0 0.00 0.00 0.00 58 1016.1
20260830133504 80 166 5.0 15.0 0.00 0.00 0.00 59 1016.2
20260830133404 80 167 4.0 15.0 0.00 0.00 0.00 58 1016.1
20260830133304 80 162 4.0 13.0 0.00 0.00 0.00 59 1016.2
20260830133205 79 163 4.0 13.0 0.00 0.00 0.00 59 1016.2
20260830133105 79 164 4.0 13.0 0.00 0.00 0.00 59 1016.2
20260830133005 79 162 4.0 9.0 0.00 0.00 0.00 59 1016.2
20260830132905 79 162 4.0 9.0 0.00 0.00 0.00 59 1016.1
20260830132805 79 166 4.0 11.0 0.00 0.00 0.00 59 1016.2
20260830132605 79 169 4.0 11.0 0.00 0.00 0.00 60 1016.2
20260830132505 79 170 4.0 11.0 0.00 0.00 0.00 59 1016.1
20260830132405 79 168 4.0 11.0 0.00 0.00 0.00 59 1016.1
20260830132305 79 166 3.0 11.0 0.00 0.00 0.00 59 1016.1
20260830132204 79 164 3.0 11.0 0.00 0.00 0.00 60 1016.0
20260830132104 79 164 4.0 11.0 0.00 0.00 0.00 60 1016.1
20260830131904 79 164 3.0 12.0 0.00 0.00 0.00 59 1016.0
20260830131804 79 162 4.0 12.0 0.00 0.00 0.00 61 1016.1
20260830131704 79 163 4.0 12.0 0.00 0.00 0.00 60 1016.0
20260830131604 79 160 4.0 12.0 0.00 0.00 0.00 59 1016.0
20260830131504 79 158 3.0 12.0 0.00 0.00 0.00 59 1016.0
20260830131304 79 158 3.0 12.0 0.00 0.00 0.00 60 1016.0
20260830131204 79 159 3.0 12.0 0.00 0.00 0.00 60 1016.1
20260830130904 79 160 3.0 10.0 0.00 0.00 0.00 60 1016.1
20260830130804 78 159 3.0 9.0 0.00 0.00 0.00 60 1016.1
20260830130704 78 161 3.0 12.0 0.00 0.00 0.00 60 1016.1
20260830130604 78 162 3.0 12.0 0.00 0.00 0.00 60 1016.1
20260830130504 78 161 3.0 12.0 0.00 0.00 0.00 60 1016.1
20260830130404 78 161 3.0 12.0 0.00 0.00 0.00 60 1016.1
20260830130304 78 161 3.0 12.0 0.00 0.00 0.00 60 1016.1
20260830130204 78 156 3.0 12.0 0.00 0.00 0.00 60 1016.1
20260830130104 78 151 3.0 12.0 0.00 0.00 0.00 60 1016.1
20260830130004 78 147 3.0 12.0 0.00 0.00 0.00 60 1016.1
20260830125804 78 147 3.0 12.0 0.00 0.00 0.00 60 1016.1
20260830125604 78 145 3.0 8.0 0.00 0.00 0.00 61 1016.2
20260830125504 78 145 3.0 8.0 0.00 0.00 0.00 61 1016.1
20260830125404 78 145 3.0 8.0 0.00 0.00 0.00 61 1016.2
20260830125306 78 142 3.0 8.0 0.00 0.00 0.00 61 1016.1
20260830125204 78 144 3.0 8.0 0.00 0.00 0.00 61 1016.2
20260830125104 77 145 3.0 8.0 0.00 0.00 0.00 61 1016.2
20260830125004 77 145 3.0 8.0 0.00 0.00 0.00 61 1016.2
20260830124904 77 145 2.0 8.0 0.00 0.00 0.00 61 1016.3
20260830124804 77 144 2.0 8.0 0.00 0.00 0.00 61 1016.2
20260830124704 77 143 2.0 7.0 0.00 0.00 0.00 62 1016.2
20260830124604 77 144 2.0 7.0 0.00 0.00 0.00 62 1016.2
20260830124504 77 143 2.0 6.0 0.00 0.00 0.00 62 1016.2
20260830124404 77 143 2.0 5.0 0.00 0.00 0.00 62 1016.2
20260830124304 77 147 2.0 5.0 0.00 0.00 0.00 62 1016.2
20260830124204 77 147 2.0 5.0 0.00 0.00 0.00 62 1016.2
20260830124104 77 146 2.0 5.0 0.00 0.00 0.00 62 1016.2
20260830124004 77 148 2.0 5.0 0.00 0.00 0.00 62 1016.2
20260830123904 77 149 2.0 5.0 0.00 0.00 0.00 62 1016.1
20260830123804 77 151 2.0 5.0 0.00 0.00 0.00 62 1016.1
20260830123704 77 148 2.0 5.0 0.00 0.00 0.00 62 1016.2
20260830123604 77 147 2.0 5.0 0.00 0.00 0.00 62 1016.1
20260830123504 77 147 2.0 5.0 0.00 0.00 0.00 62 1016.1
20260830123404 77 151 2.0 9.0 0.00 0.00 0.00 62 1016.1
20260830123304 77 149 2.0 9.0 0.00 0.00 0.00 62 1016.0
20260830123204 77 150 2.0 9.0 0.00 0.00 0.00 62 1016.1
20260830123004 77 152 3.0 9.0 0.00 0.00 0.00 62 1016.0
20260830122904 77 153 3.0 9.0 0.00 0.00 0.00 62 1016.1
20260830122804 77 154 3.0 9.0 0.00 0.00 0.00 62 1016.1
20260830122704 77 155 3.0 9.0 0.00 0.00 0.00 62 1016.1
20260830122604 77 156 3.0 9.0 0.00 0.00 0.00 62 1016.1
20260830122504 77 156 3.0 9.0 0.00 0.00 0.00 62 1016.1
20260830122404 77 154 3.0 8.0 0.00 0.00 0.00 62 1016.1
20260830122204 77 151 3.0 8.0 0.00 0.00 0.00 62 1016.0
20260830122005 77 152 3.0 8.0 0.00 0.00 0.00 62 1016.1
20260830121904 77 151 3.0 8.0 0.00 0.00 0.00 62 1016.1
20260830121605 77 148 3.0 7.0 0.00 0.00 0.00 62 1015.9
20260830121505 77 147 3.0 6.0 0.00 0.00 0.00 62 1015.9
20260830121405 77 147 3.0 9.0 0.00 0.00 0.00 62 1015.9
20260830121305 77 149 3.0 9.0 0.00 0.00 0.00 62 1015.9
20260830121205 77 151 3.0 9.0 0.00 0.00 0.00 62 1015.9
20260830121005 76 149 3.0 9.0 0.00 0.00 0.00 62 1015.9
20260830120704 76 150 3.0 9.0 0.00 0.00 0.00 62 1015.8
20260830120604 77 150 3.0 9.0 0.00 0.00 0.00 62 1015.8
20260830120404 76 147 3.0 7.0 0.00 0.00 0.00 62 1015.8
20260830120304 76 146 3.0 6.0 0.00 0.00 0.00 62 1015.8
20260830120104 76 148 3.0 9.0 0.00 0.00 0.00 62 1015.8
20260830120004 76 147 3.0 9.0 0.00 0.00 0.00 62 1015.8
20260830115904 76 148 3.0 9.0 0.00 0.00 0.00 62 1015.7
20260830115804 76 147 3.0 9.0 0.00 0.00 0.00 62 1015.7
20260830115704 76 148 3.0 9.0 0.00 0.00 0.00 62 1015.7
20260830115504 77 145 3.0 9.0 0.00 0.00 0.00 62 1015.6
20260830115404 76 144 3.0 9.0 0.00 0.00 0.00 62 1015.6
20260830115306 77 144 3.0 9.0 0.00 0.00 0.00 62 1015.7
20260830115204 77 142 2.0 9.0 0.00 0.00 0.00 62 1015.6
20260830115104 77 142 2.0 9.0 0.00 0.00 0.00 62 1015.7
20260830115004 77 142 2.0 9.0 0.00 0.00 0.00 62 1015.7
20260830114904 77 138 2.0 6.0 0.00 0.00 0.00 62 1015.6
20260830114804 76 140 2.0 6.0 0.00 0.00 0.00 62 1015.7
20260830114704 77 142 2.0 9.0 0.00 0.00 0.00 62 1015.7
20260830114604 77 145 2.0 9.0 0.00 0.00 0.00 62 1015.7
20260830114504 77 153 3.0 11.0 0.00 0.00 0.00 62 1015.7
20260830114404 77 156 3.0 11.0 0.00 0.00 0.00 62 1015.7
20260830114304 77 157 3.0 11.0 0.00 0.00 0.00 62 1015.7
20260830114204 77 158 3.0 11.0 0.00 0.00 0.00 61 1015.7
20260830114104 77 158 3.0 11.0 0.00 0.00 0.00 61 1015.7
20260830113904 77 158 3.0 11.0 0.00 0.00 0.00 61 1015.7
20260830113804 77 156 3.0 11.0 0.00 0.00 0.00 61 1015.7
20260830113704 77 155 3.0 11.0 0.00 0.00 0.00 61 1015.7
20260830113604 77 155 3.0 11.0 0.00 0.00 0.00 61 1015.6
20260830113504 77 152 3.0 9.0 0.00 0.00 0.00 61 1015.6
20260830113404 77 152 3.0 9.0 0.00 0.00 0.00 61 1015.6
20260830113304 77 148 3.0 9.0 0.00 0.00 0.00 61 1015.7
20260830113204 77 146 3.0 9.0 0.00 0.00 0.00 61 1015.7
20260830113104 77 146 3.0 9.0 0.00 0.00 0.00 61 1015.6
20260830113004 77 144 3.0 9.0 0.00 0.00 0.00 61 1015.6
20260830112904 77 144 3.0 9.0 0.00 0.00 0.00 61 1015.5
20260830112804 77 145 3.0 9.0 0.00 0.00 0.00 61 1015.6
20260830112704 77 144 3.0 9.0 0.00 0.00 0.00 61 1015.6
20260830112604 77 142 2.0 9.0 0.00 0.00 0.00 61 1015.6
20260830112504 77 138 2.0 9.0 0.00 0.00 0.00 61 1015.6
20260830112405 77 135 2.0 9.0 0.00 0.00 0.00 61 1015.5
20260830112306 77 138 2.0 8.0 0.00 0.00 0.00 61 1015.6
20260830112104 77 136 2.0 6.0 0.00 0.00 0.00 61 1015.6
20260830112005 77 137 2.0 6.0 0.00 0.00 0.00 61 1015.6
20260830111905 77 137 2.0 6.0 0.00 0.00 0.00 61 1015.6
20260830111805 77 138 2.0 6.0 0.00 0.00 0.00 61 1015.6
20260830111605 77 135 3.0 6.0 0.00 0.00 0.00 61 1015.6
20260830111505 77 137 2.0 6.0 0.00 0.00 0.00 61 1015.6
20260830111405 77 137 2.0 6.0 0.00 0.00 0.00 61 1015.6
20260830111305 77 137 2.0 6.0 0.00 0.00 0.00 61 1015.7
20260830111205 77 137 2.0 6.0 0.00 0.00 0.00 61 1015.6
20260830111105 77 139 2.0 6.0 0.00 0.00 0.00 61 1015.7
20260830111005 77 142 3.0 6.0 0.00 0.00 0.00 61 1015.7
20260830110905 77 141 3.0 7.0 0.00 0.00 0.00 61 1015.7
20260830110805 77 140 3.0 7.0 0.00 0.00 0.00 61 1015.7
20260830110704 77 140 3.0 7.0 0.00 0.00 0.00 61 1015.7
20260830110604 77 144 2.0 7.0 0.00 0.00 0.00 61 1015.7
20260830110505 77 145 2.0 7.0 0.00 0.00 0.00 61 1015.7
20260830110305 77 144 2.0 7.0 0.00 0.00 0.00 61 1015.8
20260830110105 77 146 2.0 7.0 0.00 0.00 0.00 61 1015.8
20260830110005 77 146 2.0 8.0 0.00 0.00 0.00 61 1015.8
20260830105904 77 147 2.0 8.0 0.00 0.00 0.00 61 1015.8
20260830105804 77 148 2.0 8.0 0.00 0.00 0.00 61 1015.9
20260830105705 77 149 2.0 8.0 0.00 0.00 0.00 61 1015.8
20260830105605 77 146 2.0 8.0 0.00 0.00 0.00 61 1015.8
20260830105505 77 149 2.0 9.0 0.00 0.00 0.00 61 1015.8
20260830105405 77 152 3.0 9.0 0.00 0.00 0.00 60 1015.8
20260830105204 77 156 3.0 9.0 0.00 0.00 0.00 60 1015.8
20260830104904 77 150 3.0 9.0 0.00 0.00 0.00 60 1015.8
20260830104804 77 151 2.0 9.0 0.00 0.00 0.00 60 1015.7
20260830104704 77 150 3.0 9.0 0.00 0.00 0.00 60 1015.8
20260830104604 77 151 2.0 9.0 0.00 0.00 0.00 60 1015.7
20260830104504 78 148 2.0 7.0 0.00 0.00 0.00 60 1015.8
20260830104304 78 144 2.0 7.0 0.00 0.00 0.00 60 1015.7
20260830104204 78 138 2.0 7.0 0.00 0.00 0.00 60 1015.7
20260830104104 78 137 2.0 7.0 0.00 0.00 0.00 60 1015.7
20260830104004 78 140 2.0 6.0 0.00 0.00 0.00 60 1015.8
20260830103904 78 140 2.0 6.0 0.00 0.00 0.00 60 1015.8
20260830103804 78 138 2.0 6.0 0.00 0.00 0.00 60 1015.7
20260830103704 78 136 2.0 6.0 0.00 0.00 0.00 60 1015.7
20260830103604 78 135 2.0 6.0 0.00 0.00 0.00 60 1015.7
20260830103504 78 134 2.0 6.0 0.00 0.00 0.00 60 1015.7
20260830103404 78 134 3.0 6.0 0.00 0.00 0.00 60 1015.7
20260830103305 78 133 3.0 6.0 0.00 0.00 0.00 60 1015.7
20260830103205 78 133 3.0 6.0 0.00 0.00 0.00 60 1015.7
20260830103005 78 132 2.0 6.0 0.00 0.00 0.00 60 1015.7
20260830102804 78 132 2.0 6.0 0.00 0.00 0.00 60 1015.6
20260830102604 78 132 2.0 6.0 0.00 0.00 0.00 60 1015.6
20260830102504 78 133 2.0 6.0 0.00 0.00 0.00 60 1015.7
20260830102404 78 132 2.0 6.0 0.00 0.00 0.00 60 1015.7
20260830102204 78 137 2.0 5.0 0.00 0.00 0.00 60 1015.7
20260830102104 78 138 2.0 5.0 0.00 0.00 0.00 60 1015.7
20260830102005 78 139 2.0 5.0 0.00 0.00 0.00 60 1015.8
20260830101904 78 140 2.0 8.0 0.00 0.00 0.00 60 1015.8
20260830101804 78 143 2.0 8.0 0.00 0.00 0.00 59 1015.8
20260830101704 78 145 2.0 8.0 0.00 0.00 0.00 60 1015.8
20260830101604 78 147 2.0 8.0 0.00 0.00 0.00 59 1015.8
20260830101504 78 148 2.0 8.0 0.00 0.00 0.00 59 1015.8
20260830101404 78 149 2.0 8.0 0.00 0.00 0.00 59 1015.9
20260830101305 78 151 2.0 8.0 0.00 0.00 0.00 59 1015.9
20260830101204 78 148 2.0 8.0 0.00 0.00 0.00 59 1015.9
20260830101104 78 147 2.0 8.0 0.00 0.00 0.00 59 1015.8
20260830101004 78 146 2.0 8.0 0.00 0.00 0.00 59 1015.8
20260830100904 78 147 2.0 8.0 0.00 0.00 0.00 59 1015.8
20260830100804 78 144 2.0 8.0 0.00 0.00 0.00 59 1015.8
20260830100704 78 143 2.0 8.0 0.00 0.00 0.00 59 1015.8
20260830100504 78 138 2.0 8.0 0.00 0.00 0.00 59 1015.7
20260830100205 78 136 2.0 7.0 0.00 0.00 0.00 59 1015.7
20260830100104 78 135 2.0 7.0 0.00 0.00 0.00 59 1015.7
20260830100004 78 136 2.0 7.0 0.00 0.00 0.00 59 1015.7
20260830095904 78 133 2.0 4.0 0.00 0.00 0.00 59 1015.7
20260830095704 78 135 2.0 5.0 0.00 0.00 0.00 58 1015.7
20260830095604 79 138 2.0 5.0 0.00 0.00 0.00 58 1015.7
20260830095504 79 141 2.0 5.0 0.00 0.00 0.00 58 1015.7
20260830095404 79 139 2.0 5.0 0.00 0.00 0.00 58 1015.6
20260830095306 79 139 2.0 5.0 0.00 0.00 0.00 58 1015.7
20260830095204 79 142 2.0 7.0 0.00 0.00 0.00 58 1015.6
20260830095004 79 141 2.0 7.0 0.00 0.00 0.00 58 1015.6
20260830094704 79 146 2.0 7.0 0.00 0.00 0.00 58 1015.7
20260830094604 79 145 2.0 7.0 0.00 0.00 0.00 58 1015.7
20260830094504 79 146 2.0 8.0 0.00 0.00 0.00 58 1015.7
20260830094304 79 148 2.0 8.0 0.00 0.00 0.00 58 1015.7
20260830094204 79 147 2.0 8.0 0.00 0.00 0.00 58 1015.7
20260830094004 79 152 3.0 8.0 0.00 0.00 0.00 57 1015.8
20260830093904 79 152 2.0 8.0 0.00 0.00 0.00 57 1015.7
20260830093804 79 151 3.0 8.0 0.00 0.00 0.00 57 1015.7
20260830093704 79 154 3.0 8.0 0.00 0.00 0.00 57 1015.7
20260830093604 79 154 2.0 8.0 0.00 0.00 0.00 57 1015.7
20260830093504 79 154 2.0 8.0 0.00 0.00 0.00 57 1015.7
20260830093404 79 152 2.0 8.0 0.00 0.00 0.00 57 1015.7
20260830093304 79 155 3.0 8.0 0.00 0.00 0.00 57 1015.7
20260830093104 79 160 3.0 8.0 0.00 0.00 0.00 57 1015.7
20260830092904 80 160 3.0 8.0 0.00 0.00 0.00 57 1015.7
20260830092804 80 161 3.0 8.0 0.00 0.00 0.00 57 1015.7
20260830092704 80 159 3.0 8.0 0.00 0.00 0.00 57 1015.7
20260830092604 80 158 3.0 8.0 0.00 0.00 0.00 56 1015.7
20260830092504 80 157 3.0 8.0 0.00 0.00 0.00 56 1015.7
20260830092404 80 159 3.0 8.0 0.00 0.00 0.00 56 1015.7
20260830092306 80 158 3.0 8.0 0.00 0.00 0.00 56 1015.7
20260830092204 80 157 2.0 6.0 0.00 0.00 0.00 56 1015.6
20260830092104 80 153 2.0 6.0 0.00 0.00 0.00 56 1015.6
20260830092004 80 156 2.0 6.0 0.00 0.00 0.00 56 1015.6
20260830091904 80 157 2.0 5.0 0.00 0.00 0.00 56 1015.6
20260830091804 80 157 2.0 5.0 0.00 0.00 0.00 56 1015.6
20260830091704 80 157 2.0 5.0 0.00 0.00 0.00 56 1015.6
20260830091604 80 156 2.0 5.0 0.00 0.00 0.00 56 1015.6
20260830091504 80 157 3.0 5.0 0.00 0.00 0.00 56 1015.6
20260830091404 80 159 2.0 9.0 0.00 0.00 0.00 56 1015.5
20260830091105 80 156 3.0 9.0 0.00 0.00 0.00 56 1015.5
20260830091005 80 154 3.0 9.0 0.00 0.00 0.00 55 1015.4
20260830090905 80 153 3.0 9.0 0.00 0.00 0.00 55 1015.4
20260830090705 80 153 3.0 9.0 0.00 0.00 0.00 55 1015.4
20260830090605 80 153 3.0 9.0 0.00 0.00 0.00 55 1015.4
20260830090505 80 151 3.0 9.0 0.00 0.00 0.00 55 1015.4
20260830090405 80 151 3.0 9.0 0.00 0.00 0.00 55 1015.4
20260830090305 80 153 3.0 9.0 0.00 0.00 0.00 55 1015.5
20260830090205 80 156 3.0 9.0 0.00 0.00 0.00 55 1015.4
20260830090105 80 157 3.0 9.0 0.00 0.00 0.00 55 1015.4
20260830090005 80 157 3.0 9.0 0.00 0.00 0.00 55 1015.5
20260830085904 81 154 3.0 9.0 0.00 0.00 0.00 55 1015.5
20260830085804 81 156 3.0 9.0 0.00 0.00 0.00 55 1015.6
20260830085704 81 156 3.0 9.0 0.00 0.00 0.00 55 1015.5
20260830085604 81 155 3.0 9.0 0.00 0.00 0.00 55 1015.5
20260830085504 81 155 3.0 9.0 0.00 0.00 0.00 54 1015.6
20260830085306 81 155 3.0 9.0 0.00 0.00 0.00 54 1015.5
20260830085204 81 151 2.0 8.0 0.00 0.00 0.00 54 1015.5
20260830085104 81 149 3.0 8.0 0.00 0.00 0.00 54 1015.5
20260830085004 81 152 3.0 8.0 0.00 0.00 0.00 54 1015.5
20260830084804 81 149 3.0 8.0 0.00 0.00 0.00 54 1015.5
20260830084704 81 148 3.0 7.0 0.00 0.00 0.00 54 1015.5
20260830084604 81 151 3.0 7.0 0.00 0.00 0.00 54 1015.5
20260830084404 81 152 3.0 7.0 0.00 0.00 0.00 53 1015.6
20260830084204 82 157 3.0 8.0 0.00 0.00 0.00 53 1015.6
20260830084104 82 160 3.0 9.0 0.00 0.00 0.00 53 1015.6
20260830084005 82 162 3.0 9.0 0.00 0.00 0.00 53 1015.6
20260830083905 82 166 3.0 9.0 0.00 0.00 0.00 53 1015.6
20260830083805 82 169 3.0 9.0 0.00 0.00 0.00 53 1015.6
20260830083605 82 169 3.0 9.0 0.00 0.00 0.00 53 1015.6
20260830083404 82 169 3.0 9.0 0.00 0.00 0.00 53 1015.6
20260830083204 82 169 3.0 9.0 0.00 0.00 0.00 53 1015.6
20260830083104 82 169 3.0 9.0 0.00 0.00 0.00 52 1015.6
20260830083004 82 168 3.0 9.0 0.00 0.00 0.00 52 1015.6
20260830082905 82 168 3.0 9.0 0.00 0.00 0.00 52 1015.6
20260830082805 82 170 3.0 9.0 0.00 0.00 0.00 52 1015.5
20260830082705 82 171 4.0 9.0 0.00 0.00 0.00 52 1015.6
20260830082605 82 173 3.0 9.0 0.00 0.00 0.00 52 1015.6
20260830082505 82 171 4.0 9.0 0.00 0.00 0.00 52 1015.6
20260830082405 82 173 4.0 9.0 0.00 0.00 0.00 52 1015.6
20260830082306 82 169 4.0 9.0 0.00 0.00 0.00 52 1015.6
20260830082205 82 170 4.0 9.0 0.00 0.00 0.00 52 1015.5
20260830082105 82 168 4.0 9.0 0.00 0.00 0.00 52 1015.6
20260830082005 82 166 4.0 9.0 0.00 0.00 0.00 52 1015.5
20260830081905 82 164 3.0 9.0 0.00 0.00 0.00 52 1015.5
20260830081805 82 162 4.0 9.0 0.00 0.00 0.00 52 1015.5
20260830081705 82 161 3.0 9.0 0.00 0.00 0.00 52 1015.5
20260830081605 82 158 3.0 9.0 0.00 0.00 0.00 52 1015.5
20260830081505 82 156 3.0 9.0 0.00 0.00 0.00 52 1015.5
20260830081405 82 154 3.0 8.0 0.00 0.00 0.00 52 1015.4
20260830081305 82 156 3.0 8.0 0.00 0.00 0.00 52 1015.4
20260830081205 82 155 3.0 8.0 0.00 0.00 0.00 52 1015.4
20260830081105 82 158 3.0 8.0 0.00 0.00 0.00 52 1015.4
20260830081005 82 159 3.0 8.0 0.00 0.00 0.00 52 1015.4
20260830080905 82 158 3.0 8.0 0.00 0.00 0.00 52 1015.4
20260830080805 83 161 3.0 9.0 0.00 0.00 0.00 52 1015.4
20260830080705 82 160 3.0 9.0 0.00 0.00 0.00 52 1015.4
20260830080604 83 161 4.0 9.0 0.00 0.00 0.00 51 1015.4
20260830080505 83 166 4.0 10.0 0.00 0.00 0.00 52 1015.4
20260830080405 83 166 4.0 10.0 0.00 0.00 0.00 51 1015.4
20260830080304 83 163 4.0 10.0 0.00 0.00 0.00 51 1015.4
20260830080204 83 161 3.0 10.0 0.00 0.00 0.00 51 1015.4
20260830080104 83 158 3.0 10.0 0.00 0.00 0.00 51 1015.4
20260830075805 83 149 3.0 10.0 0.00 0.00 0.00 51 1015.4
20260830075704 83 152 3.0 10.0 0.00 0.00 0.00 51 1015.4
20260830075604 83 152 3.0 10.0 0.00 0.00 0.00 51 1015.4
20260830075505 83 149 3.0 7.0 0.00 0.00 0.00 51 1015.4
20260830075404 83 148 3.0 7.0 0.00 0.00 0.00 51 1015.4
20260830075306 83 148 3.0 7.0 0.00 0.00 0.00 51 1015.4
20260830075204 83 155 3.0 11.0 0.00 0.00 0.00 51 1015.4
20260830075104 83 157 4.0 11.0 0.00 0.00 0.00 51 1015.3
20260830075004 83 157 4.0 11.0 0.00 0.00 0.00 51 1015.4
20260830074904 83 158 4.0 11.0 0.00 0.00 0.00 51 1015.4
20260830074804 83 160 4.0 11.0 0.00 0.00 0.00 50 1015.4
20260830074705 83 163 4.0 12.0 0.00 0.00 0.00 50 1015.4
20260830074604 83 165 4.0 12.0 0.00 0.00 0.00 50 1015.4
20260830074505 83 168 4.0 12.0 0.00 0.00 0.00 50 1015.4
20260830074404 83 172 5.0 15.0 0.00 0.00 0.00 50 1015.4
20260830074304 84 176 5.0 15.0 0.00 0.00 0.00 50 1015.4
20260830074204 84 177 5.0 15.0 0.00 0.00 0.00 50 1015.5
20260830074104 84 181 5.0 15.0 0.00 0.00 0.00 50 1015.5
20260830074004 84 182 5.0 15.0 0.00 0.00 0.00 50 1015.4
20260830073904 84 183 5.0 15.0 0.00 0.00 0.00 50 1015.4
20260830073804 84 181 5.0 15.0 0.00 0.00 0.00 50 1015.4
20260830073704 84 179 5.0 15.0 0.00 0.00 0.00 50 1015.4
20260830073504 84 176 4.0 15.0 0.00 0.00 0.00 50 1015.5
20260830073404 84 172 4.0 13.0 0.00 0.00 0.00 50 1015.4
20260830073204 84 169 4.0 13.0 0.00 0.00 0.00 50 1015.4
20260830073104 84 164 4.0 13.0 0.00 0.00 0.00 50 1015.4
20260830072904 84 160 4.0 13.0 0.00 0.00 0.00 50 1015.4
20260830072804 84 161 4.0 13.0 0.00 0.00 0.00 50 1015.4
20260830072704 84 162 4.0 13.0 0.00 0.00 0.00 50 1015.3
20260830072604 84 161 4.0 13.0 0.00 0.00 0.00 50 1015.4
20260830072505 84 160 4.0 13.0 0.00 0.00 0.00 50 1015.4
20260830072104 84 154 3.0 10.0 0.00 0.00 0.00 50 1015.3
20260830071905 84 158 3.0 10.0 0.00 0.00 0.00 50 1015.3
20260830071804 84 159 4.0 10.0 0.00 0.00 0.00 50 1015.3
20260830071604 84 155 3.0 10.0 0.00 0.00 0.00 50 1015.3
20260830071504 84 155 4.0 10.0 0.00 0.00 0.00 49 1015.4
20260830071404 84 155 4.0 9.0 0.00 0.00 0.00 49 1015.4
20260830071304 84 160 4.0 9.0 0.00 0.00 0.00 49 1015.4
20260830071204 84 163 4.0 9.0 0.00 0.00 0.00 49 1015.4
20260830071104 84 164 4.0 9.0 0.00 0.00 0.00 49 1015.3
20260830071005 84 163 4.0 9.0 0.00 0.00 0.00 49 1015.4
20260830070905 84 163 4.0 9.0 0.00 0.00 0.00 49 1015.3
20260830070705 84 163 4.0 9.0 0.00 0.00 0.00 49 1015.4
20260830070605 84 164 4.0 9.0 0.00 0.00 0.00 49 1015.4
20260830070305 84 159 4.0 9.0 0.00 0.00 0.00 49 1015.4
20260830070105 84 156 3.0 11.0 0.00 0.00 0.00 49 1015.4
20260830070005 84 157 3.0 11.0 0.00 0.00 0.00 49 1015.4
20260830065905 84 157 3.0 11.0 0.00 0.00 0.00 49 1015.4
20260830065705 84 152 3.0 11.0 0.00 0.00 0.00 49 1015.4
20260830065605 84 152 3.0 11.0 0.00 0.00 0.00 49 1015.4
20260830065505 84 152 3.0 11.0 0.00 0.00 0.00 49 1015.4
20260830065306 84 152 3.0 11.0 0.00 0.00 0.00 49 1015.4
20260830065205 84 152 3.0 11.0 0.00 0.00 0.00 49 1015.4
20260830065105 84 148 3.0 8.0 0.00 0.00 0.00 49 1015.4
20260830064905 84 146 3.0 6.0 0.00 0.00 0.00 49 1015.4
20260830064805 84 148 3.0 6.0 0.00 0.00 0.00 49 1015.4
20260830064605 84 151 3.0 6.0 0.00 0.00 0.00 50 1015.4
20260830064304 84 149 3.0 6.0 0.00 0.00 0.00 50 1015.4
20260830064205 84 147 2.0 6.0 0.00 0.00 0.00 49 1015.4
20260830063905 84 144 2.0 5.0 0.00 0.00 0.00 50 1015.4
20260830063804 84 145 2.0 5.0 0.00 0.00 0.00 50 1015.4
20260830063504 84 143 2.0 8.0 0.00 0.00 0.00 50 1015.4
20260830063304 84 149 3.0 9.0 0.00 0.00 0.00 49 1015.4
20260830063204 84 150 3.0 9.0 0.00 0.00 0.00 50 1015.4
20260830063104 84 150 3.0 9.0 0.00 0.00 0.00 49 1015.4
20260830063004 84 150 3.0 9.0 0.00 0.00 0.00 50 1015.4
20260830062904 84 150 3.0 9.0 0.00 0.00 0.00 50 1015.4
20260830062804 84 148 3.0 9.0 0.00 0.00 0.00 50 1015.4
20260830062704 84 148 3.0 12.0 0.00 0.00 0.00 50 1015.4
20260830062604 84 154 3.0 12.0 0.00 0.00 0.00 50 1015.4
20260830062404 84 150 3.0 12.0 0.00 0.00 0.00 50 1015.4
20260830062306 84 148 3.0 12.0 0.00 0.00 0.00 50 1015.4
20260830062205 84 147 3.0 12.0 0.00 0.00 0.00 50 1015.5
20260830062105 84 149 3.0 12.0 0.00 0.00 0.00 50 1015.5
20260830062005 84 150 3.0 12.0 0.00 0.00 0.00 50 1015.4
20260830061905 84 151 3.0 12.0 0.00 0.00 0.00 50 1015.5
20260830061805 84 152 3.0 12.0 0.00 0.00 0.00 50 1015.4
20260830061705 84 150 3.0 10.0 0.00 0.00 0.00 50 1015.4
20260830061605 84 142 2.0 8.0 0.00 0.00 0.00 50 1015.4
20260830061505 84 141 2.0 8.0 0.00 0.00 0.00 50 1015.4
20260830061405 84 141 2.0 8.0 0.00 0.00 0.00 50 1015.4
20260830061305 84 145 3.0 8.0 0.00 0.00 0.00 50 1015.4
20260830061205 84 146 3.0 8.0 0.00 0.00 0.00 50 1015.4
20260830061105 84 144 3.0 8.0 0.00 0.00 0.00 50 1015.4
20260830061005 84 142 3.0 8.0 0.00 0.00 0.00 50 1015.4
20260830060905 84 144 3.0 8.0 0.00 0.00 0.00 50 1015.4
20260830060805 84 144 3.0 8.0 0.00 0.00 0.00 50 1015.5
20260830060705 84 142 3.0 8.0 0.00 0.00 0.00 50 1015.5
20260830060605 84 145 3.0 8.0 0.00 0.00 0.00 50 1015.4
20260830060505 84 144 3.0 8.0 0.00 0.00 0.00 50 1015.4
20260830060305 84 142 2.0 8.0 0.00 0.00 0.00 50 1015.4
20260830060205 84 143 2.0 6.0 0.00 0.00 0.00 51 1015.4
20260830060105 84 143 2.0 6.0 0.00 0.00 0.00 50 1015.4
20260830060005 84 144 2.0 6.0 0.00 0.00 0.00 51 1015.4
20260830055805 84 148 2.0 7.0 0.00 0.00 0.00 51 1015.4
20260830055505 84 146 2.0 7.0 0.00 0.00 0.00 51 1015.3
20260830055405 84 147 2.0 7.0 0.00 0.00 0.00 50 1015.4
20260830055306 84 144 2.0 7.0 0.00 0.00 0.00 50 1015.4
20260830055205 84 142 2.0 7.0 0.00 0.00 0.00 50 1015.3
20260830055005 84 141 2.0 7.0 0.00 0.00 0.00 50 1015.3
20260830054905 84 140 2.0 7.0 0.00 0.00 0.00 50 1015.3
20260830054805 84 132 2.0 7.0 0.00 0.00 0.00 50 1015.2
20260830054704 84 134 2.0 7.0 0.00 0.00 0.00 50 1015.3
20260830054605 84 135 2.0 7.0 0.00 0.00 0.00 50 1015.3
20260830054504 84 135 3.0 7.0 0.00 0.00 0.00 50 1015.3
20260830054405 84 133 3.0 7.0 0.00 0.00 0.00 50 1015.3
20260830054305 84 134 3.0 7.0 0.00 0.00 0.00 50 1015.3
20260830054204 84 135 3.0 7.0 0.00 0.00 0.00 50 1015.3
20260830054104 84 134 3.0 6.0 0.00 0.00 0.00 50 1015.3
20260830054005 84 134 3.0 6.0 0.00 0.00 0.00 50 1015.4
20260830053905 84 133 3.0 6.0 0.00 0.00 0.00 50 1015.4
20260830053804 84 133 3.0 6.0 0.00 0.00 0.00 50 1015.4
20260830053704 84 131 3.0 6.0 0.00 0.00 0.00 49 1015.4
20260830053604 84 131 3.0 6.0 0.00 0.00 0.00 49 1015.4
20260830053505 84 132 3.0 7.0 0.00 0.00 0.00 49 1015.3
20260830053404 84 133 3.0 7.0 0.00 0.00 0.00 49 1015.4
20260830053304 84 133 3.0 7.0 0.00 0.00 0.00 49 1015.4
20260830053204 84 132 3.0 7.0 0.00 0.00 0.00 49 1015.4
20260830052904 84 131 3.0 8.0 0.00 0.00 0.00 49 1015.3
20260830052804 84 133 2.0 8.0 0.00 0.00 0.00 49 1015.4
20260830052705 84 132 3.0 8.0 0.00 0.00 0.00 49 1015.4
20260830052604 84 131 3.0 8.0 0.00 0.00 0.00 49 1015.4
20260830052504 84 130 2.0 8.0 0.00 0.00 0.00 49 1015.5
20260830052404 84 130 2.0 8.0 0.00 0.00 0.00 49 1015.4
20260830052306 84 130 2.0 8.0 0.00 0.00 0.00 49 1015.4
20260830051804 84 131 3.0 6.0 0.00 0.00 0.00 49 1015.4
20260830051704 84 132 2.0 5.0 0.00 0.00 0.00 49 1015.3
20260830051505 84 135 2.0 5.0 0.00 0.00 0.00 49 1015.4
20260830051404 84 137 2.0 5.0 0.00 0.00 0.00 49 1015.4
20260830051205 85 141 3.0 8.0 0.00 0.00 0.00 49 1015.4
20260830051105 85 141 2.0 8.0 0.00 0.00 0.00 49 1015.3
20260830051005 85 142 2.0 8.0 0.00 0.00 0.00 49 1015.4
20260830050905 85 141 2.0 8.0 0.00 0.00 0.00 49 1015.4
20260830050804 85 142 3.0 8.0 0.00 0.00 0.00 49 1015.4
20260830050704 85 142 3.0 8.0 0.00 0.00 0.00 49 1015.4
20260830050604 85 141 2.0 8.0 0.00 0.00 0.00 49 1015.4
20260830050505 85 140 3.0 8.0 0.00 0.00 0.00 49 1015.4
20260830050404 85 139 3.0 8.0 0.00 0.00 0.00 49 1015.5
20260830050304 85 136 2.0 8.0 0.00 0.00 0.00 49 1015.5
20260830050204 85 134 2.0 6.0 0.00 0.00 0.00 49 1015.4
20260830050104 85 133 2.0 6.0 0.00 0.00 0.00 49 1015.4
20260830050007 85 133 2.0 6.0 0.00 0.00 0.00 49 1015.4
20260830045905 85 133 2.0 6.0 0.00 0.00 0.00 49 1015.5
20260830045805 85 133 2.0 6.0 0.00 0.00 0.00 49 1015.5
20260830045705 85 133 2.0 6.0 0.00 0.00 0.00 49 1015.5
20260830045605 85 134 2.0 6.0 0.00 0.00 0.00 49 1015.5
20260830045505 85 135 2.0 6.0 0.00 0.00 0.00 49 1015.5
20260830045405 85 133 2.0 6.0 0.00 0.00 0.00 49 1015.5
20260830045306 85 134 2.0 6.0 0.00 0.00 0.00 49 1015.5
20260830045205 85 134 2.0 5.0 0.00 0.00 0.00 49 1015.5
20260830044804 85 140 2.0 5.0 0.00 0.00 0.00 49 1015.5
20260830044704 85 141 2.0 5.0 0.00 0.00 0.00 49 1015.5
20260830044604 85 140 2.0 5.0 0.00 0.00 0.00 49 1015.5
20260830044504 85 140 2.0 5.0 0.00 0.00 0.00 49 1015.6
20260830044404 85 142 2.0 6.0 0.00 0.00 0.00 49 1015.6
20260830044304 85 142 2.0 6.0 0.00 0.00 0.00 49 1015.5
20260830044204 85 142 2.0 6.0 0.00 0.00 0.00 49 1015.5
20260830044105 85 142 2.0 6.0 0.00 0.00 0.00 49 1015.5
20260830043905 85 140 2.0 6.0 0.00 0.00 0.00 49 1015.5
20260830043805 85 137 2.0 6.0 0.00 0.00 0.00 49 1015.5
20260830043705 85 136 2.0 6.0 0.00 0.00 0.00 48 1015.5
20260830043504 85 136 2.0 6.0 0.00 0.00 0.00 48 1015.5
20260830043405 85 135 2.0 6.0 0.00 0.00 0.00 48 1015.5
20260830043305 85 133 2.0 6.0 0.00 0.00 0.00 48 1015.4
20260830043205 85 130 2.0 6.0 0.00 0.00 0.00 48 1015.4
20260830043105 85 131 2.0 8.0 0.00 0.00 0.00 48 1015.4
20260830043005 85 130 2.0 8.0 0.00 0.00 0.00 48 1015.5
20260830042905 85 129 2.0 8.0 0.00 0.00 0.00 48 1015.4
20260830042705 85 139 2.0 8.0 0.00 0.00 0.00 48 1015.4
20260830042605 85 138 3.0 8.0 0.00 0.00 0.00 48 1015.4
20260830042505 86 138 3.0 8.0 0.00 0.00 0.00 48 1015.4
20260830042405 86 138 3.0 8.0 0.00 0.00 0.00 48 1015.4
20260830042306 86 139 3.0 8.0 0.00 0.00 0.00 48 1015.4
20260830042205 86 139 3.0 8.0 0.00 0.00 0.00 48 1015.4
20260830042105 86 138 3.0 7.0 0.00 0.00 0.00 48 1015.4
20260830042005 86 138 3.0 7.0 0.00 0.00 0.00 48 1015.4
20260830041905 86 141 3.0 7.0 0.00 0.00 0.00 48 1015.4
20260830041805 86 140 3.0 6.0 0.00 0.00 0.00 48 1015.3
20260830041705 86 136 2.0 6.0 0.00 0.00 0.00 48 1015.4
20260830041405 86 135 2.0 6.0 0.00 0.00 0.00 48 1015.4
20260830041305 86 135 2.0 6.0 0.00 0.00 0.00 48 1015.4
20260830041105 86 136 2.0 6.0 0.00 0.00 0.00 48 1015.3
20260830041005 86 139 2.0 6.0 0.00 0.00 0.00 47 1015.4
20260830040905 86 137 2.0 6.0 0.00 0.00 0.00 47 1015.4
20260830040805 86 135 2.0 6.0 0.00 0.00 0.00 47 1015.4
20260830040705 86 135 2.0 6.0 0.00 0.00 0.00 47 1015.4
20260830040505 86 135 2.0 6.0 0.00 0.00 0.00 47 1015.4
20260830040405 86 134 2.0 6.0 0.00 0.00 0.00 47 1015.3
20260830040304 86 134 3.0 7.0 0.00 0.00 0.00 47 1015.4
20260830040205 86 134 2.0 7.0 0.00 0.00 0.00 47 1015.4
20260830040104 86 134 2.0 7.0 0.00 0.00 0.00 47 1015.4
20260830040004 86 133 2.0 7.0 0.00 0.00 0.00 47 1015.4
20260830035904 86 133 2.0 7.0 0.00 0.00 0.00 47 1015.4
20260830035804 86 135 3.0 7.0 0.00 0.00 0.00 47 1015.4
20260830035704 86 134 3.0 7.0 0.00 0.00 0.00 47 1015.4
20260830035604 86 134 3.0 7.0 0.00 0.00 0.00 47 1015.4
20260830035306 86 134 3.0 7.0 0.00 0.00 0.00 46 1015.4
20260830035204 86 134 3.0 7.0 0.00 0.00 0.00 46 1015.3
20260830035104 86 136 3.0 7.0 0.00 0.00 0.00 46 1015.3
20260830035004 86 136 3.0 7.0 0.00 0.00 0.00 46 1015.3
20260830034804 86 136 3.0 7.0 0.00 0.00 0.00 46 1015.3
20260830034704 86 137 3.0 7.0 0.00 0.00 0.00 46 1015.3
20260830034604 86 138 3.0 7.0 0.00 0.00 0.00 46 1015.2
20260830034404 86 138 3.0 7.0 0.00 0.00 0.00 46 1015.2
20260830034304 86 138 3.0 7.0 0.00 0.00 0.00 46 1015.2
20260830034004 86 135 3.0 7.0 0.00 0.00 0.00 46 1015.1
20260830033904 86 133 3.0 7.0 0.00 0.00 0.00 46 1015.2
20260830033704 86 131 3.0 6.0 0.00 0.00 0.00 46 1015.2
20260830033604 86 131 2.0 6.0 0.00 0.00 0.00 46 1015.2
20260830033504 87 131 2.0 6.0 0.00 0.00 0.00 45 1015.2
20260830033404 87 130 2.0 6.0 0.00 0.00 0.00 45 1015.1
20260830033205 87 134 2.0 8.0 0.00 0.00 0.00 45 1015.1
20260830033005 87 137 2.0 8.0 0.00 0.00 0.00 45 1015.2
20260830032905 87 137 2.0 8.0 0.00 0.00 0.00 45 1015.1
20260830032805 87 138 2.0 8.0 0.00 0.00 0.00 45 1015.2
20260830032705 87 139 2.0 8.0 0.00 0.00 0.00 45 1015.2
20260830032605 87 139 2.0 8.0 0.00 0.00 0.00 45 1015.1
20260830032505 87 138 3.0 8.0 0.00 0.00 0.00 45 1015.2
20260830032405 87 137 3.0 8.0 0.00 0.00 0.00 45 1015.1
20260830032306 87 137 3.0 8.0 0.00 0.00 0.00 45 1015.2
20260830032205 87 134 3.0 6.0 0.00 0.00 0.00 45 1015.1
20260830032005 87 134 3.0 6.0 0.00 0.00 0.00 45 1015.0
20260830031905 87 133 3.0 7.0 0.00 0.00 0.00 45 1015.0
20260830031805 87 133 3.0 7.0 0.00 0.00 0.00 45 1015.0
20260830031605 87 133 2.0 7.0 0.00 0.00 0.00 45 1015.0
20260830031405 87 134 2.0 7.0 0.00 0.00 0.00 45 1014.9
20260830031305 87 133 2.0 7.0 0.00 0.00 0.00 44 1014.9
20260830031205 87 134 2.0 7.0 0.00 0.00 0.00 44 1014.9
20260830031105 87 131 2.0 7.0 0.00 0.00 0.00 45 1014.8
20260830031005 87 133 2.0 7.0 0.00 0.00 0.00 45 1014.8
20260830030905 87 133 2.0 6.0 0.00 0.00 0.00 44 1014.9
20260830030804 87 133 2.0 6.0 0.00 0.00 0.00 44 1014.9
20260830030704 87 133 2.0 6.0 0.00 0.00 0.00 44 1014.9
20260830030605 87 132 2.0 6.0 0.00 0.00 0.00 44 1014.8
20260830030504 87 132 2.0 4.0 0.00 0.00 0.00 44 1014.9
20260830030305 88 133 2.0 5.0 0.00 0.00 0.00 44 1014.8
20260830030204 88 133 2.0 5.0 0.00 0.00 0.00 44 1014.8
20260830030105 88 132 2.0 5.0 0.00 0.00 0.00 44 1014.8
20260830030004 88 130 2.0 5.0 0.00 0.00 0.00 44 1014.8
20260830025904 88 129 2.0 5.0 0.00 0.00 0.00 44 1014.8
20260830025704 88 129 2.0 6.0 0.00 0.00 0.00 44 1014.8
20260830025604 88 130 2.0 6.0 0.00 0.00 0.00 44 1014.8
20260830025504 88 131 2.0 6.0 0.00 0.00 0.00 44 1014.8
20260830025404 88 131 2.0 6.0 0.00 0.00 0.00 44 1014.7
20260830025306 88 130 2.0 6.0 0.00 0.00 0.00 43 1014.9
20260830025104 88 129 2.0 6.0 0.00 0.00 0.00 43 1014.9
20260830025004 88 129 2.0 6.0 0.00 0.00 0.00 43 1014.8
20260830024904 88 129 2.0 6.0 0.00 0.00 0.00 43 1014.9
20260830024804 88 128 2.0 5.0 0.00 0.00 0.00 43 1014.9
20260830024704 88 128 2.0 5.0 0.00 0.00 0.00 43 1014.8
20260830024604 88 127 2.0 5.0 0.00 0.00 0.00 43 1014.9
20260830024504 88 125 2.0 5.0 0.00 0.00 0.00 43 1014.8
20260830024404 88 129 2.0 8.0 0.00 0.00 0.00 43 1014.8
20260830024304 88 129 2.0 8.0 0.00 0.00 0.00 43 1014.8
20260830024204 89 130 2.0 8.0 0.00 0.00 0.00 43 1014.8
20260830024104 89 131 2.0 8.0 0.00 0.00 0.00 43 1014.8
20260830024004 89 132 2.0 8.0 0.00 0.00 0.00 43 1014.8
20260830023904 89 136 2.0 8.0 0.00 0.00 0.00 43 1014.8
20260830023805 89 135 2.0 8.0 0.00 0.00 0.00 43 1014.8
20260830023604 89 143 2.0 9.0 0.00 0.00 0.00 43 1014.7
20260830023504 89 143 2.0 9.0 0.00 0.00 0.00 42 1014.8
20260830023404 89 141 2.0 9.0 0.00 0.00 0.00 42 1014.8
20260830023304 89 139 2.0 9.0 0.00 0.00 0.00 42 1014.8
20260830023204 89 138 2.0 9.0 0.00 0.00 0.00 42 1014.8
20260830023104 89 139 3.0 9.0 0.00 0.00 0.00 42 1014.7
20260830022904 89 136 3.0 9.0 0.00 0.00 0.00 42 1014.7
20260830022804 89 136 3.0 9.0 0.00 0.00 0.00 42 1014.6
20260830022704 89 136 3.0 9.0 0.00 0.00 0.00 42 1014.6
20260830022604 89 131 3.0 8.0 0.00 0.00 0.00 42 1014.6
20260830022504 89 131 3.0 8.0 0.00 0.00 0.00 42 1014.6
20260830022404 89 131 3.0 8.0 0.00 0.00 0.00 42 1014.5
20260830022306 90 133 3.0 7.0 0.00 0.00 0.00 42 1014.5
20260830022204 90 133 3.0 7.0 0.00 0.00 0.00 42 1014.6
20260830022104 90 133 3.0 7.0 0.00 0.00 0.00 41 1014.5
20260830022004 90 134 3.0 7.0 0.00 0.00 0.00 41 1014.5
20260830021804 90 133 3.0 7.0 0.00 0.00 0.00 41 1014.5
20260830021704 90 135 3.0 8.0 0.00 0.00 0.00 41 1014.5
20260830021604 90 137 3.0 8.0 0.00 0.00 0.00 41 1014.5
20260830021504 90 137 3.0 8.0 0.00 0.00 0.00 41 1014.4
20260830021404 90 139 3.0 8.0 0.00 0.00 0.00 41 1014.3